GEFSSGP_con_prob3kmehi_150.txt.gz
EHI
2 2 1 0 0 0 0 0 0 0 0 0 0 0 0 0 1 1 1 5 11 16 14 14 19 24 27 30 33 34 34 31 22 14 10 7 4 2 1 0 0 0 0 0 0 0 0 0 0
1 1 0 0 0 0 0 0 0 0 0 0 0 0 0 1 1 1 2 6 15 19 15 15 21 25 27 28 29 29 29 26 19 12 7 5 3 1 0 0 0 0 0 0 0 0 0 0 0
0 0 0 0 0 0 0 0 0 0 0 0 0 0 0 2 2 2 5 11 19 21 16 18 25 28 27 27 26 25 24 21 16 9 5 4 3 1 0 0 0 0 0 0 0 0 0 0 0
0 0 0 0 0 0 0 0 0 0 0 1 1 1 1 2 4 7 13 20 25 23 18 23 32 34 29 25 22 22 21 18 13 7 3 3 2 1 0 0 0 0 0 0 0 0 0 0 0
0 0 0 0 0 0 0 0 1 1 1 2 3 3 3 5 10 16 22 27 32 30 25 29 39 40 32 24 19 18 17 14 9 5 3 2 2 1 0 0 0 0 0 0 0 0 0 0 0
0 0 0 0 0 0 0 1 2 2 3 5 6 5 4 9 17 24 24 27 35 38 34 33 37 38 32 25 18 15 13 9 6 4 3 1 1 1 0 0 0 0 0 0 0 0 0 0 0
0 0 0 0 0 0 0 1 2 4 6 8 8 6 6 11 20 26 26 28 35 41 40 34 30 28 25 22 17 15 11 7 4 3 3 1 0 0 1 1 1 0 0 0 0 0 0 0 0
0 0 0 0 0 0 0 1 2 5 8 9 8 6 8 17 27 31 32 34 37 39 39 33 26 20 17 15 14 13 11 7 4 3 3 2 1 0 1 1 1 0 0 0 0 0 0 0 0
0 0 0 0 0 0 0 1 3 7 10 11 10 11 20 33 41 43 43 43 41 38 35 30 25 19 14 12 12 12 11 7 4 3 3 2 1 0 0 1 1 0 0 0 0 0 0 0 0
0 0 0 0 0 0 1 3 6 9 12 13 16 26 41 50 49 44 44 42 40 38 33 27 23 20 16 13 11 11 10 7 4 2 1 1 1 0 0 0 1 0 0 0 0 0 0 0 0
0 0 0 0 0 0 1 4 8 11 12 15 27 46 58 56 43 34 32 32 32 35 33 26 21 19 17 14 12 11 9 7 4 1 0 0 0 0 0 0 0 0 0 0 0 0 0 0 0
0 0 0 0 0 0 2 5 8 11 11 18 38 59 63 52 38 27 24 25 26 30 29 24 20 16 15 15 13 11 9 6 4 1 0 0 0 0 0 0 0 0 0 0 0 0 0 0 0
0 0 0 0 0 1 2 4 8 10 13 24 45 59 59 49 37 29 25 25 26 26 25 21 19 16 14 13 12 11 9 6 3 1 0 0 0 0 0 0 0 0 0 0 0 0 0 0 0
0 0 0 0 0 1 3 5 7 11 19 30 42 48 49 44 36 32 29 26 24 23 21 20 19 17 13 11 10 9 8 6 3 1 0 0 0 0 0 0 0 0 0 0 0 0 0 0 0
0 0 0 0 0 1 4 5 7 14 26 34 34 33 36 34 31 29 27 22 19 19 19 20 19 16 13 10 9 8 7 5 3 2 0 0 0 0 0 0 0 0 0 0 0 0 0 0 0
0 0 0 0 0 1 3 5 8 18 31 36 31 26 25 24 23 22 21 18 14 15 18 18 17 15 13 9 8 7 6 4 2 1 0 0 0 0 0 0 0 0 0 0 0 0 0 0 0
0 0 0 0 0 0 2 5 11 21 32 35 30 24 20 19 18 18 17 16 13 13 14 15 15 13 10 7 6 5 4 3 1 0 0 0 0 0 0 0 0 0 0 0 0 0 0 0 0
0 0 0 0 0 0 3 7 13 21 27 29 28 23 19 19 20 21 21 20 18 14 12 11 11 9 6 6 5 4 2 2 1 0 0 0 0 0 0 0 0 0 0 0 0 0 0 0 0
0 0 0 0 0 1 3 6 11 17 21 24 25 24 21 22 26 29 29 27 25 20 15 11 9 7 6 6 5 2 1 1 0 0 0 0 0 0 0 0 0 0 0 0 0 0 0 0 0
0 0 0 0 0 1 2 4 5 10 17 21 22 24 26 29 35 38 37 35 31 25 20 15 11 9 9 8 4 1 0 0 0 0 0 1 1 1 0 0 0 0 0 0 0 0 0 0 0
0 0 0 0 0 0 1 1 2 6 10 14 18 25 31 35 38 41 42 38 31 26 22 19 14 11 9 7 4 2 1 1 0 0 0 1 1 1 0 0 0 0 0 0 0 0 0 0 0
0 0 0 0 0 0 0 0 1 3 5 7 14 25 32 35 35 38 40 37 29 23 20 17 14 10 8 6 4 3 3 2 0 0 0 0 0 0 0 0 0 0 0 0 0 0 0 0 0
0 0 0 0 0 0 0 0 0 2 3 4 10 21 29 31 32 34 35 33 26 20 16 13 11 8 6 4 4 4 4 2 1 0 0 0 0 0 0 0 0 0 0 0 0 0 0 0 0
0 0 0 0 0 0 0 0 0 0 1 2 6 15 23 28 30 31 30 28 23 17 13 10 8 7 5 4 3 3 4 4 2 0 0 0 0 0 0 0 0 0 0 0 0 0 0 0 0
0 0 0 0 0 0 0 0 0 0 0 2 7 15 22 27 28 28 28 25 21 16 13 10 8 6 5 4 3 3 4 5 3 1 0 0 0 0 0 0 0 0 0 0 0 0 0 0 0
0 0 0 0 0 0 0 0 0 0 2 6 10 17 23 25 25 26 26 23 19 16 14 11 8 7 6 5 4 3 4 5 3 1 0 0 0 0 0 0 0 0 0 0 0 0 0 0 0
0 0 0 0 0 0 0 0 0 2 5 9 12 16 20 23 23 22 21 18 15 13 12 10 8 6 6 6 4 3 3 4 2 1 0 0 0 0 0 0 0 0 0 0 0 0 0 0 0
0 0 0 0 0 0 0 0 0 2 6 10 11 12 16 19 20 18 15 13 10 8 7 6 5 4 4 4 3 2 1 1 1 0 0 0 0 0 0 0 0 0 0 0 0 0 0 0 0
0 0 0 0 0 0 0 0 0 1 4 7 8 8 11 13 14 12 10 8 7 5 5 4 4 3 2 1 1 0 0 0 0 0 0 0 0 0 0 0 0 0 0 0 0 0 0 0 0
0 0 0 0 0 0 0 0 0 0 2 4 6 7 8 8 9 9 8 6 6 5 5 4 4 3 1 0 0 0 0 0 0 0 0 0 0 0 0 0 0 0 0 0 0 0 0 0 0

GEFSSGP_con_prob3kmehi_156.txt.gz
EHI
3 5 11 14 9 2 0 0 0 0 1 1 0 0 0 0 0 0 0 0 0 1 2 3 3 2 4 12 22 23 18 13 6 1 1 2 2 1 0 0 0 0 0 0 0 0 0 0 0
5 7 11 11 5 1 0 0 0 0 1 1 0 0 0 0 0 0 0 0 0 1 3 4 4 3 4 11 20 21 16 10 5 1 2 3 3 1 0 0 0 0 0 0 0 0 0 0 0
4 6 7 5 1 0 0 0 0 0 1 1 0 0 0 0 0 0 1 0 0 1 4 8 7 5 4 9 15 16 12 7 4 2 3 4 3 1 0 0 0 0 0 0 0 0 1 1 0
2 2 2 1 0 0 0 0 0 0 0 1 0 0 1 1 1 2 3 1 0 1 5 11 12 7 5 6 9 9 7 5 4 4 4 3 1 0 0 0 0 0 0 0 0 0 1 1 1
0 0 0 0 0 0 0 0 0 0 0 0 0 2 5 6 6 7 6 2 0 0 5 12 15 11 7 5 6 6 5 4 3 3 2 1 0 0 0 0 0 0 0 0 0 0 1 1 0
0 0 0 0 0 0 0 0 0 0 0 0 0 4 12 17 16 13 9 3 1 0 5 13 15 12 8 6 6 7 6 4 3 2 1 0 0 0 0 0 0 0 0 0 0 0 0 0 0
0 0 0 0 0 0 0 0 0 0 0 0 1 7 21 30 28 19 11 6 3 2 6 12 13 10 8 7 7 8 8 7 5 3 1 0 0 0 0 0 0 0 0 0 0 0 0 0 0
0 0 0 0 0 0 0 0 0 0 0 1 2 10 28 43 41 28 19 12 7 5 6 9 10 8 7 7 7 8 9 8 6 4 1 0 0 0 0 0 0 0 0 0 0 0 0 0 0
0 0 0 0 0 0 0 0 0 0 2 3 5 14 36 56 56 45 35 26 17 9 5 6 7 6 6 6 7 8 8 6 4 2 0 0 0 0 0 0 0 0 0 0 0 0 0 0 0
0 0 0 0 0 0 0 0 0 1 3 6 13 27 49 64 65 57 48 40 28 15 7 5 5 5 5 5 7 8 6 3 1 0 0 0 1 0 0 1 0 0 0 0 0 0 0 0 0
0 0 0 0 0 0 0 0 0 1 3 8 21 42 58 66 66 60 51 43 35 24 14 8 8 7 6 6 9 9 6 3 2 1 0 0 0 0 0 0 0 0 0 0 0 0 0 0 0
0 0 0 0 0 0 0 0 0 1 3 9 26 48 60 64 64 58 48 40 37 33 25 18 14 12 11 11 11 10 8 5 4 2 1 0 0 1 1 1 1 0 0 0 0 0 0 0 0
0 0 0 0 0 0 0 0 1 2 5 14 32 47 55 59 60 53 44 39 39 39 33 27 22 18 17 16 13 9 7 6 5 4 3 1 0 1 2 2 1 0 0 0 0 0 0 0 0
0 0 0 0 0 0 0 0 1 4 9 20 34 45 50 54 54 50 45 42 41 39 35 29 25 23 20 16 12 7 5 5 5 4 3 1 0 1 1 1 1 0 0 0 0 0 0 0 0
0 0 0 0 0 0 0 1 3 6 11 20 30 38 44 50 50 48 46 44 41 37 33 26 22 21 20 15 9 5 4 4 3 2 1 0 0 0 0 0 0 0 0 0 0 0 0 0 0
0 0 0 0 0 0 0 2 6 9 12 17 23 29 38 46 47 43 42 42 40 37 33 25 18 16 19 16 10 6 5 4 2 1 0 0 0 0 0 0 0 0 0 0 0 0 0 0 0
0 0 0 0 0 0 0 3 9 12 13 15 19 23 32 40 43 41 38 39 40 39 35 27 18 15 17 17 13 10 8 4 2 1 0 0 0 0 0 0 0 1 1 1 0 0 0 0 0
0 0 0 0 0 0 0 4 11 14 13 14 18 23 29 35 40 41 38 37 37 37 34 28 22 19 19 18 16 14 10 5 2 1 0 0 0 0 0 0 1 1 1 1 0 0 0 0 0
0 0 0 0 0 0 0 4 9 13 12 13 18 24 30 34 39 43 43 40 37 36 34 30 25 23 23 22 20 16 10 5 2 1 0 0 0 0 0 0 0 1 1 0 0 0 0 0 0
0 0 0 0 0 0 0 3 7 10 10 11 15 21 28 35 41 47 51 48 42 39 35 31 28 27 25 24 21 16 10 5 2 1 0 0 0 0 0 0 0 1 1 0 0 0 0 0 0
0 0 0 0 0 0 0 2 5 8 9 9 10 16 25 34 43 50 54 52 46 38 32 27 26 26 25 23 20 17 13 8 4 2 1 1 1 0 0 0 0 1 1 0 0 1 1 1 1
0 0 0 0 0 0 0 1 3 5 7 7 10 18 26 33 41 49 52 49 44 34 24 21 22 23 22 20 19 18 15 11 8 5 3 2 2 1 0 0 0 1 1 0 0 0 1 1 1
0 0 0 0 0 0 0 0 1 2 4 7 13 22 30 35 40 45 46 43 38 29 21 18 21 22 19 18 17 16 14 11 9 8 5 3 2 1 0 0 0 0 1 1 1 0 0 1 2
0 0 0 0 0 0 0 0 0 0 2 6 13 21 30 35 38 41 42 39 34 28 23 22 23 22 18 17 15 13 11 10 10 10 8 4 2 1 1 1 1 0 0 1 1 0 0 1 1
0 0 0 0 0 0 0 0 0 0 1 4 10 18 28 35 37 39 40 38 34 30 27 25 25 22 18 16 15 12 11 10 10 10 10 7 3 3 4 3 2 0 0 1 1 1 1 1 2
0 0 0 0 0 0 0 0 0 1 2 4 9 17 27 34 36 37 39 37 34 31 28 26 25 22 18 16 15 11 9 8 7 8 9 7 4 3 4 3 2 1 0 1 3 4 4 5 6
0 0 0 0 0 0 0 0 1 2 5 8 12 19 27 33 35 34 34 33 29 27 26 25 22 18 14 13 12 9 6 5 5 6 7 6 4 2 1 2 2 1 1 2 4 6 7 8 8
0 0 0 0 0 0 0 0 1 3 8 13 17 20 24 30 33 30 27 25 22 20 23 24 21 16 10 8 9 7 6 5 4 4 4 4 3 1 0 1 1 1 1 3 5 7 7 6 6
0 0 0 0 0 0 0 0 1 4 9 16 21 21 23 29 31 27 22 19 15 16 20 23 22 17 12 9 8 8 7 6 4 4 3 3 3 2 1 2 2 2 2 3 4 5 4 3 3
0 0 0 0 0 0 0 1 2 4 9 16 22 23 25 28 29 25 21 17 14 15 18 21 21 18 15 11 9 9 8 6 4 3 3 3 3 3 3 3 3 3 2 2 3 3 1 1 2

GEFSSGP_con_prob3kmehi_162.txt.gz
EHI
7 17 37 47 33 11 1 0 0 0 0 0 0 0 0 0 0 0 5 16 21 13 7 8 7 3 0 0 0 0 0 0 0 0 0 0 0 0 0 0 0 0 0 0 0 0 0 0 0
9 20 34 35 21 6 0 0 0 0 0 0 0 0 0 0 0 1 6 15 15 8 5 8 9 5 1 0 0 0 0 0 0 0 0 0 0 0 0 0 0 0 0 0 0 0 0 0 0
12 20 26 20 8 1 0 0 0 0 0 0 0 0 0 0 1 2 6 12 13 9 8 10 11 7 2 1 0 0 0 0 0 0 0 0 0 0 0 0 0 0 0 0 0 0 0 0 0
11 13 14 9 2 0 0 0 0 0 0 0 0 1 1 1 3 4 5 11 18 17 14 14 14 9 4 2 1 0 0 0 0 0 0 0 0 0 0 0 0 0 0 0 0 0 0 0 0
5 4 3 2 0 0 0 0 0 0 0 0 2 3 3 4 7 6 5 12 23 25 19 17 18 12 6 3 1 1 0 0 0 0 1 1 1 0 0 0 0 0 0 0 0 0 0 0 0
1 0 0 0 0 0 0 0 0 0 0 1 3 6 6 7 9 7 6 13 28 34 26 20 18 13 7 4 3 2 1 1 1 1 2 2 1 0 0 0 0 0 0 0 0 0 0 0 0
0 0 0 0 0 0 0 0 0 0 0 1 3 8 13 15 12 8 8 16 32 38 29 19 16 12 7 4 3 3 3 2 2 3 3 3 2 0 0 0 0 0 0 0 0 0 0 0 0
0 0 0 0 0 0 0 0 0 0 1 2 5 14 25 26 19 14 14 19 30 34 26 18 14 10 5 4 3 3 3 3 3 3 2 2 1 0 0 0 0 0 0 0 0 0 0 0 0
0 0 0 0 0 0 0 0 0 0 2 5 11 24 34 33 27 24 23 24 29 32 26 20 18 12 5 4 4 3 3 3 2 2 2 2 1 0 0 0 1 0 0 0 0 0 0 1 1
0 0 0 0 0 0 0 0 0 1 4 11 23 38 43 39 36 34 31 30 32 34 30 26 23 17 10 9 8 5 2 2 1 1 3 3 1 1 1 2 3 2 0 0 0 0 0 1 2
0 0 0 0 0 0 0 0 0 1 6 17 35 51 54 49 45 42 37 34 36 36 34 33 31 24 20 18 13 7 4 3 3 4 5 3 2 3 3 4 5 3 1 0 0 0 0 1 2
0 0 0 0 0 0 0 0 1 3 9 20 37 53 58 57 53 48 42 40 43 43 40 41 40 35 32 28 19 10 7 6 7 8 6 3 2 3 4 4 4 3 2 1 0 0 0 1 2
0 0 0 0 0 0 0 0 2 5 11 22 36 47 54 57 58 55 50 49 52 53 51 51 50 46 41 35 26 18 14 12 13 12 7 3 3 2 2 2 1 2 2 1 0 0 0 0 1
0 0 0 0 0 0 0 0 2 7 13 24 35 45 51 58 63 63 60 59 59 59 59 57 54 49 43 35 28 22 19 18 18 16 11 6 3 3 2 1 0 1 1 1 0 0 0 0 0
0 0 0 0 0 0 0 1 4 9 14 23 34 46 55 61 67 70 68 63 62 62 60 54 49 45 39 29 22 17 18 18 20 21 18 8 4 6 5 2 1 1 1 0 0 0 0 0 0
0 0 0 0 0 0 0 3 8 10 14 22 34 48 59 63 68 71 70 65 63 62 59 49 41 40 35 25 17 13 15 18 22 26 21 10 6 7 5 3 3 2 1 0 0 0 0 0 0
0 0 0 0 0 0 0 4 8 9 11 21 35 49 61 67 70 71 69 67 65 61 56 47 40 36 30 23 19 16 18 21 23 25 22 14 8 6 4 5 7 4 1 1 1 1 1 1 0
0 0 0 0 0 0 0 2 6 7 9 18 36 53 65 71 74 72 70 68 66 63 57 50 45 38 29 25 24 23 24 25 23 23 23 19 11 7 6 8 10 7 2 2 2 3 3 2 1
0 0 0 0 0 0 0 1 3 5 7 17 38 59 71 77 78 75 71 69 68 65 61 55 50 41 31 28 30 30 29 25 23 23 24 20 13 9 7 9 11 9 6 5 4 3 3 2 1
0 0 0 0 0 0 0 1 4 7 10 18 37 60 75 80 80 77 72 68 66 65 61 56 51 42 32 29 31 32 30 26 24 24 24 22 16 10 8 9 10 9 9 9 6 3 2 1 1
0 0 0 0 0 0 0 3 7 12 14 20 34 55 73 80 79 75 71 66 64 62 58 53 48 41 33 28 27 28 28 25 23 23 25 24 18 12 10 11 9 7 9 10 7 3 1 0 0
0 0 0 0 0 0 0 3 8 14 17 21 29 47 66 77 76 71 67 64 61 57 53 48 45 40 34 28 26 26 25 21 20 23 26 26 23 18 16 16 13 10 10 10 7 3 1 1 0
0 0 0 0 0 0 0 1 6 10 14 19 27 41 60 72 73 69 65 63 58 51 46 44 43 40 34 29 27 26 23 20 21 26 30 31 29 26 23 22 20 16 14 14 10 6 3 3 2
0 0 0 0 0 0 0 1 3 5 8 18 27 39 55 66 68 66 63 60 53 46 43 42 41 39 35 30 28 27 24 21 22 27 29 30 30 28 25 25 25 21 18 17 15 11 9 7 5
0 0 0 0 0 0 0 1 2 2 6 15 27 37 49 59 62 61 60 55 49 44 42 43 42 40 36 30 28 28 24 18 18 21 22 24 24 23 22 24 26 24 20 19 19 18 16 13 10
0 0 0 0 0 0 0 1 2 3 7 14 22 31 41 51 56 56 56 52 47 43 43 43 42 41 36 31 29 28 23 17 14 14 15 17 17 16 20 25 26 25 21 19 21 21 19 15 12
0 0 0 0 0 0 0 0 2 4 8 13 19 26 36 45 50 50 50 49 47 44 42 42 42 38 34 31 29 28 25 21 14 11 12 13 13 14 20 24 22 20 18 18 20 20 17 14 13
0 0 0 0 0 0 0 0 3 6 10 13 19 26 35 42 45 45 45 46 45 43 42 42 41 37 33 31 28 26 26 25 20 16 14 13 12 14 17 18 16 15 15 16 15 14 12 12 12
0 0 0 0 0 0 0 0 3 7 10 14 20 28 34 38 42 45 48 48 46 44 44 44 41 37 33 31 28 25 26 27 26 23 18 15 13 12 13 14 14 15 15 13 11 7 6 6 6
0 0 0 0 0 0 0 0 2 5 10 15 22 29 34 37 41 48 53 51 47 45 45 45 41 35 33 32 29 26 26 28 27 24 21 17 13 10 10 13 16 17 14 11 7 4 2 2 2

GEFSSGP_con_prob3kmehi_168.txt.gz
EHI
1 1 3 3 1 0 0 0 0 0 0 0 0 0 0 0 0 0 0 5 14 17 11 9 8 6 4 4 3 3 3 3 2 1 0 0 0 0 0 0 0 0 0 0 0 0 0 0 0
1 2 2 2 0 0 0 0 0 0 0 0 0 0 0 0 0 0 2 7 14 17 13 11 11 9 5 3 2 2 2 3 2 1 0 0 0 0 0 0 0 0 0 0 0 0 0 0 0
2 2 2 1 0 0 0 0 1 1 0 0 0 0 0 1 2 2 4 11 16 17 15 16 18 14 7 4 3 2 3 2 1 0 0 0 0 0 0 0 0 0 0 0 0 0 0 0 0
1 1 1 0 0 0 0 1 2 2 1 0 0 0 0 3 6 7 8 13 19 20 18 21 22 17 10 6 4 4 3 2 1 0 0 0 0 0 0 0 0 0 0 0 0 0 0 0 0
0 0 0 0 0 0 0 1 3 3 2 1 0 0 1 7 13 13 10 13 20 23 22 23 24 19 11 7 5 4 3 2 1 0 0 0 0 0 0 0 0 0 0 0 0 0 0 0 0
0 0 0 0 0 0 1 2 4 4 3 3 2 1 4 13 19 17 13 14 19 24 23 22 22 18 11 7 5 4 4 3 2 1 0 0 0 0 0 0 0 0 0 0 0 0 0 0 0
0 0 0 0 0 0 1 2 3 2 2 4 4 3 8 18 23 21 19 18 20 24 25 22 18 14 10 8 7 6 5 4 3 1 0 0 0 0 0 0 0 0 0 0 0 0 0 0 0
0 0 0 0 0 0 0 1 1 1 2 5 5 5 10 21 30 30 27 24 22 25 25 22 16 12 9 8 7 7 6 5 3 1 1 0 0 0 0 0 0 0 0 0 0 0 0 0 1
0 0 0 0 0 0 0 1 2 4 7 8 9 10 16 28 40 43 38 31 27 25 24 21 17 12 9 8 7 6 5 4 3 2 1 0 0 0 0 0 0 0 0 0 0 0 0 0 1
0 0 0 0 0 1 2 2 5 10 13 14 16 18 23 34 46 51 46 38 31 25 20 18 16 12 10 9 7 5 4 3 3 2 1 1 0 0 0 0 0 0 0 0 0 1 0 0 1
0 0 0 0 1 3 4 5 8 12 15 18 21 22 25 32 43 49 48 42 33 26 20 17 13 10 10 9 7 5 3 3 3 3 2 2 1 0 0 0 0 0 0 0 0 0 0 0 0
0 0 1 1 2 4 6 8 11 14 18 23 26 25 24 27 35 42 44 41 34 29 25 19 12 9 8 8 7 5 3 3 3 3 3 3 2 1 0 0 0 0 0 0 0 0 0 0 0
0 1 2 2 2 3 5 9 15 20 25 30 32 29 25 25 31 38 41 41 38 35 31 24 16 12 10 9 7 5 3 3 3 3 3 3 2 1 0 0 0 1 0 0 0 0 0 0 0
1 1 2 2 1 1 3 9 17 25 33 37 35 30 27 28 34 40 43 43 41 38 35 30 24 19 15 11 8 4 3 3 3 2 3 3 1 0 0 0 0 0 0 0 0 0 0 0 0
0 1 1 1 1 1 2 8 18 29 38 42 38 33 31 34 40 45 45 43 42 40 37 33 29 25 20 14 9 5 3 3 3 3 3 2 1 0 0 0 0 0 0 0 0 0 0 0 0
0 0 0 0 1 1 2 7 19 33 43 46 44 40 39 42 48 49 47 45 43 42 38 33 30 26 21 16 12 7 5 5 4 4 2 1 0 0 0 0 0 0 0 0 0 0 0 0 0
0 0 0 0 1 2 2 6 17 33 44 49 49 49 48 50 53 53 52 50 48 44 39 34 30 25 21 18 14 9 6 6 6 4 2 0 0 0 0 0 0 0 0 0 0 0 0 0 0
0 0 0 0 1 2 3 7 16 31 43 49 51 54 55 55 56 58 58 55 51 45 39 35 31 25 19 17 14 9 7 7 7 5 3 1 0 0 0 0 0 0 0 0 0 0 0 0 0
0 0 0 0 0 2 4 8 17 31 41 48 54 58 59 57 58 61 63 59 52 44 39 36 32 26 20 15 12 8 6 6 5 5 3 2 1 0 0 0 0 0 0 0 0 0 0 0 0
0 0 0 0 0 1 3 7 16 29 39 48 56 60 60 59 59 62 63 61 53 44 38 33 29 24 19 14 11 7 4 2 2 3 3 3 2 1 1 0 0 0 0 0 0 0 0 0 0
0 0 0 0 0 1 2 5 12 24 37 48 56 59 59 59 59 59 61 59 53 45 37 30 24 20 17 15 12 8 4 1 1 2 3 3 3 2 1 0 0 0 0 0 0 0 0 0 0
0 0 0 0 0 0 1 3 8 21 36 47 53 55 56 56 56 56 58 56 50 44 37 29 23 18 16 15 14 12 7 2 1 1 2 3 3 3 2 1 0 0 0 0 0 0 0 0 0
0 0 0 0 0 0 0 1 4 15 30 40 46 51 53 53 52 55 56 51 43 39 36 30 24 19 15 14 14 13 9 3 0 0 1 2 3 4 3 2 0 0 0 0 0 0 0 0 0
0 0 0 0 0 0 0 0 2 8 21 33 39 45 49 48 50 54 53 45 38 37 36 31 24 19 16 14 14 14 10 3 0 0 0 1 3 3 3 2 1 0 0 0 0 0 0 0 0
0 0 0 0 0 0 0 0 1 5 16 29 38 41 43 43 47 50 48 40 36 37 37 32 26 21 18 16 15 13 9 4 1 0 0 1 2 3 3 2 1 0 0 0 0 0 0 0 0
0 0 0 0 0 0 0 1 4 9 18 29 38 40 40 42 46 48 44 37 35 36 37 34 28 22 18 15 13 11 8 5 2 0 1 1 2 3 3 1 0 0 0 0 0 0 0 0 0
0 0 0 0 0 0 0 2 8 15 22 31 38 40 40 42 46 46 40 35 33 35 35 32 27 21 16 13 10 9 8 6 2 1 1 1 1 2 2 1 0 0 0 0 0 0 0 0 0
0 0 0 0 0 0 0 1 7 15 22 29 37 41 41 43 44 42 38 34 34 34 32 29 23 17 12 11 10 9 7 4 2 1 1 1 0 1 1 0 0 0 0 0 0 0 0 0 0
0 0 0 0 0 0 0 1 4 11 18 26 35 41 43 42 39 37 35 34 35 35 33 28 21 14 10 10 10 8 5 3 2 1 0 0 0 0 0 0 0 0 0 0 0 0 0 0 0
0 0 0 0 0 0 0 1 4 8 15 25 33 39 42 41 35 33 33 34 36 38 36 30 22 14 10 9 9 7 5 4 3 2 1 0 0 0 0 0 0 0 0 0 0 0 0 0 0

GEFSSGP_con_prob3kmehi_174.txt.gz
EHI
0 0 0 0 0 0 0 0 0 0 0 0 0 0 0 0 0 0 0 1 3 4 4 5 7 8 10 11 10 8 4 2 3 3 3 3 2 1 0 0 0 0 0 0 0 0 0 0 0
0 0 0 0 0 0 0 0 0 0 0 0 0 0 0 0 0 0 0 2 5 5 4 6 8 9 10 11 11 8 5 3 3 3 3 2 1 0 0 0 0 0 0 0 0 0 0 0 0
1 1 0 0 0 0 0 0 0 0 0 0 0 0 0 0 0 0 2 5 7 5 4 7 11 12 11 11 11 9 6 4 3 3 2 1 1 1 0 0 0 0 0 0 0 0 0 0 0
0 0 0 0 0 0 0 0 0 0 0 0 0 0 0 0 0 2 4 8 9 5 4 9 14 15 13 12 10 8 6 3 2 1 1 1 1 1 0 0 0 0 0 0 0 0 0 0 1
0 0 0 0 0 0 0 0 0 0 0 0 0 0 0 0 1 5 8 10 11 9 7 11 15 16 14 12 9 8 5 3 1 1 0 0 0 0 0 0 0 0 0 0 0 0 0 1 2
0 0 0 0 0 0 0 0 0 0 0 0 0 0 0 0 2 6 9 10 12 13 13 14 16 16 14 12 10 8 6 3 2 2 1 0 0 0 0 0 0 0 0 0 0 0 0 1 2
0 0 0 0 0 0 1 1 0 0 0 0 0 1 1 0 2 5 8 9 10 13 14 14 14 14 13 11 10 8 6 4 3 3 2 0 0 0 0 0 0 0 0 0 1 1 0 0 1
0 0 0 0 0 1 2 2 1 1 2 2 1 1 2 4 6 8 9 9 8 8 9 11 11 11 10 9 9 8 6 5 4 3 2 0 0 0 0 0 0 0 0 0 1 1 0 0 0
0 0 0 0 0 1 3 3 3 5 6 4 2 3 8 13 16 16 13 10 7 5 6 7 8 8 8 9 9 7 6 5 5 3 2 1 1 0 0 0 0 0 0 0 1 1 0 0 0
0 0 0 0 0 1 3 5 7 10 10 6 5 11 20 24 23 19 14 8 6 7 6 7 7 7 7 9 10 7 5 4 4 3 3 3 2 1 0 0 0 0 0 0 0 0 0 0 0
0 0 0 0 0 1 3 7 10 11 9 7 12 23 31 30 24 17 9 4 4 8 9 7 7 7 7 8 9 7 4 3 3 3 3 3 2 1 0 0 0 0 0 0 0 0 0 0 0
0 0 0 0 0 2 5 8 10 10 8 10 20 32 37 31 21 13 6 2 3 7 8 7 7 7 6 7 8 7 4 3 3 3 3 2 1 0 0 0 0 0 0 0 0 0 0 0 0
0 0 0 0 0 3 7 9 10 10 11 16 25 32 34 28 19 12 7 5 5 5 4 5 7 7 6 6 6 5 4 3 3 3 3 1 0 0 0 0 0 0 0 0 0 0 0 0 0
0 0 0 0 0 2 5 7 8 12 16 21 24 25 24 22 18 13 11 9 7 6 4 4 6 7 6 6 4 3 3 3 3 3 2 1 0 0 0 0 0 0 0 0 0 0 0 0 0
0 0 0 0 0 1 2 3 6 13 22 24 22 19 17 16 15 14 13 12 9 8 6 4 5 7 6 5 2 1 1 1 2 1 1 0 0 0 0 0 0 0 0 0 0 0 0 0 0
0 0 0 0 0 0 1 2 5 13 22 24 22 19 17 14 12 12 14 14 13 11 7 5 6 6 5 3 1 0 0 0 0 0 0 0 0 0 0 0 0 0 0 0 0 0 0 0 0
0 0 0 0 0 0 1 3 7 13 19 21 21 19 18 15 12 13 17 19 17 14 9 6 5 3 2 1 0 0 0 0 0 0 0 0 0 0 0 0 0 0 0 0 0 0 0 0 0
0 0 0 0 0 0 1 4 8 14 18 20 19 18 18 16 15 18 23 24 21 17 12 8 4 3 2 2 1 1 0 0 0 0 0 0 0 0 0 0 0 0 0 0 0 0 0 0 0
0 0 0 0 0 1 3 5 7 12 16 17 18 19 19 19 20 23 27 27 24 21 18 13 9 8 8 6 4 2 0 0 0 0 0 0 0 0 0 0 0 0 0 0 0 0 0 0 0
0 0 0 0 0 1 2 4 5 8 11 13 16 20 22 23 25 28 30 29 25 23 22 18 14 13 11 9 7 3 0 0 0 0 0 0 0 0 0 0 0 0 0 0 0 0 0 0 0
0 0 0 0 0 0 1 2 3 6 8 13 18 23 25 26 28 30 32 29 25 22 22 20 15 12 10 9 7 5 2 1 1 0 0 0 0 0 0 0 0 0 0 0 0 0 0 0 0
0 0 0 0 0 0 0 0 2 4 8 14 21 26 25 24 26 30 32 30 25 22 20 19 15 12 9 8 9 8 6 4 2 0 0 0 0 0 0 0 0 0 0 0 0 0 0 0 0
0 0 0 0 0 0 0 0 1 2 5 11 19 24 25 24 24 27 30 29 25 22 20 18 16 12 10 9 11 11 9 5 2 0 0 0 0 0 0 0 0 0 0 0 0 0 0 0 0
0 0 0 0 0 0 0 0 0 1 3 8 13 19 24 25 25 28 30 28 25 21 19 17 15 11 9 10 11 11 9 5 1 0 0 0 0 0 0 0 0 0 0 0 0 0 0 0 0
0 0 0 0 0 0 0 0 0 0 2 6 12 17 22 25 27 29 30 29 26 21 17 16 13 9 7 9 9 9 7 4 2 0 0 0 0 0 0 0 0 0 0 0 0 0 0 0 0
0 0 0 0 0 0 0 0 0 1 3 8 14 18 21 23 27 30 29 28 26 22 18 14 11 8 6 7 6 5 4 2 1 0 0 0 0 0 0 0 0 0 0 0 0 0 0 0 0
0 0 0 0 0 0 0 0 0 1 4 10 15 18 19 22 25 25 24 23 22 21 18 14 11 7 5 5 4 3 2 1 0 1 1 1 0 0 0 0 0 0 0 0 0 0 0 0 0
0 0 0 0 0 0 0 0 0 1 4 8 13 16 18 21 21 18 17 17 18 19 18 15 10 6 4 5 5 4 2 0 0 1 2 2 1 1 0 0 0 0 0 0 0 0 0 0 0
0 0 0 0 0 0 0 0 0 1 4 6 8 12 15 17 17 13 12 13 16 17 17 14 10 6 5 6 7 5 3 1 0 1 1 2 2 1 0 0 0 0 0 0 0 0 0 0 0
0 0 0 0 0 0 0 0 1 2 5 6 7 9 12 14 14 11 10 12 15 16 16 13 10 7 6 6 7 6 4 2 1 0 0 1 1 1 0 0 0 0 0 0 0 0 0 0 0

GEFSSGP_con_prob3kmehi_180.txt.gz
EHI
3 2 3 5 3 1 0 0 0 0 0 0 0 0 0 0 0 0 0 0 0 1 2 3 2 1 2 3 4 6 6 6 6 5 4 3 1 0 0 0 0 0 0 0 0 0 0 0 0
3 3 4 3 1 0 0 0 0 0 0 0 0 0 0 0 0 0 0 0 0 0 2 4 4 3 3 4 4 5 5 6 5 4 3 2 1 0 0 0 0 0 0 0 0 0 0 0 0
4 4 3 1 0 0 0 0 0 0 0 0 0 0 0 0 0 0 0 0 0 0 2 5 6 4 3 4 3 2 3 4 3 2 1 1 0 0 0 0 0 0 0 0 0 0 0 0 0
5 4 2 1 0 0 0 0 0 0 0 0 0 0 0 0 0 0 0 0 0 0 2 5 6 5 4 3 3 1 1 3 3 2 1 0 0 0 0 0 0 0 0 0 0 0 0 0 0
3 3 1 0 0 0 0 0 0 0 0 0 0 0 0 0 0 0 0 0 0 1 3 6 7 6 5 4 4 3 2 3 3 3 2 1 1 1 1 0 0 0 0 0 0 0 0 0 0
1 1 0 0 0 0 0 0 0 0 0 0 0 0 1 3 3 1 0 0 1 2 3 5 6 7 6 6 6 5 3 3 3 3 3 3 2 2 2 1 0 0 0 0 0 0 0 0 0
0 0 0 0 0 0 0 0 0 0 0 0 0 1 5 9 7 3 1 1 1 2 2 2 4 5 6 6 6 6 4 3 3 3 3 3 3 3 2 1 0 0 0 0 0 0 0 0 0
0 0 0 0 0 0 0 0 0 0 0 0 0 3 11 17 13 6 3 2 2 2 1 0 2 3 3 4 6 6 4 3 3 3 3 3 3 1 1 0 0 0 1 0 0 0 0 0 0
0 0 0 0 0 0 0 0 0 1 1 1 3 8 18 24 18 9 5 4 3 2 1 0 0 1 1 3 5 5 4 3 3 3 3 3 2 1 0 0 0 0 0 0 0 0 0 0 0
0 0 0 0 0 0 0 1 1 1 1 4 10 19 27 28 20 11 6 4 4 3 2 1 0 0 0 2 4 4 3 3 3 3 3 3 2 1 0 0 0 0 0 0 0 0 0 0 0
0 0 0 0 0 0 0 1 3 2 1 4 16 30 35 29 20 12 6 3 3 3 3 3 3 2 2 2 3 4 4 4 3 2 2 3 3 2 1 1 0 0 0 0 0 0 0 0 0
0 0 0 0 0 0 1 4 6 5 3 6 17 32 37 29 19 11 5 1 2 4 5 6 7 8 7 6 6 6 6 5 4 3 3 3 3 3 2 1 0 0 0 0 0 0 0 0 0
0 0 0 0 0 1 2 5 8 8 6 9 18 28 31 26 18 11 6 3 3 5 8 9 11 12 12 10 8 7 6 5 4 4 3 3 3 3 3 1 0 0 0 0 0 0 0 0 0
0 0 0 0 0 1 2 5 8 9 9 11 17 22 23 21 18 14 11 8 7 9 11 12 13 13 13 11 8 6 5 4 4 4 4 3 3 3 3 2 0 0 0 0 0 0 0 0 0
0 0 0 0 0 0 1 5 8 9 9 10 12 16 18 20 20 19 16 14 12 13 16 15 12 12 11 9 7 6 5 4 4 4 4 3 3 3 3 2 1 0 0 0 0 0 0 0 0
0 0 0 0 0 0 1 4 9 9 7 7 8 12 18 22 23 20 16 16 16 18 22 22 16 12 10 8 8 7 5 4 4 4 3 3 3 2 1 1 0 0 0 0 0 0 0 0 0
0 0 0 0 0 0 0 4 7 7 6 7 8 12 20 26 26 21 16 18 21 25 28 29 24 18 12 9 9 8 5 4 4 4 3 3 2 1 0 0 0 0 0 0 0 0 0 0 0
0 0 0 0 0 0 1 3 6 6 7 8 9 13 20 24 26 24 22 23 28 32 33 32 29 25 18 12 10 8 6 6 6 4 2 1 1 0 0 0 0 0 0 0 0 0 0 0 0
0 0 0 0 0 0 1 4 7 9 10 10 10 12 16 20 25 29 30 30 33 37 38 36 33 30 25 18 12 8 7 7 7 4 1 0 0 0 0 0 0 0 0 0 0 0 0 0 0
0 0 0 0 0 0 1 4 8 12 14 12 10 10 13 18 25 31 34 36 39 42 43 41 37 34 29 23 16 11 9 8 6 3 1 0 0 0 0 0 0 0 0 0 0 0 0 0 0
0 0 0 0 0 0 0 2 6 11 14 14 11 11 13 19 26 31 33 37 41 43 41 38 36 33 28 24 17 13 11 9 6 3 1 0 0 0 0 0 0 0 0 0 0 0 0 0 0
0 0 0 0 0 0 0 1 4 8 12 14 14 15 19 22 27 31 33 37 38 36 35 36 34 31 26 21 16 13 12 8 5 3 2 1 1 1 0 0 0 0 0 0 0 0 0 0 0
0 0 0 0 0 0 0 1 3 6 9 12 15 19 25 28 30 33 35 37 35 30 31 35 35 31 26 21 18 15 11 8 6 5 4 2 2 2 1 0 1 0 0 0 1 1 1 1 1
0 0 0 0 0 0 0 0 2 4 7 10 14 19 25 29 31 33 36 37 34 30 29 31 33 31 27 22 20 18 14 11 10 9 8 6 4 4 2 2 4 3 2 2 2 2 2 3 4
0 0 0 0 0 0 0 1 3 5 7 10 13 17 22 24 26 31 35 37 35 31 28 27 29 29 26 23 22 22 20 17 14 13 11 8 6 4 2 3 5 6 5 3 3 3 3 4 5
0 0 0 0 0 0 0 1 4 6 7 10 13 16 19 21 23 27 31 32 32 31 28 26 26 26 25 23 22 24 23 19 16 13 10 8 6 3 2 2 2 4 4 4 3 3 3 4 5
0 0 0 0 0 0 0 1 4 7 9 13 15 17 21 23 23 25 26 25 26 28 28 25 25 26 25 23 22 22 21 18 14 10 7 6 5 3 2 2 1 2 3 4 4 3 3 4 5
0 0 0 0 0 0 0 0 2 7 13 17 19 20 22 24 25 27 27 24 22 24 25 23 24 26 25 21 19 19 18 16 12 9 7 6 5 5 4 4 4 4 6 7 7 5 4 5 4
0 0 0 0 0 0 0 0 2 6 14 21 23 23 23 24 26 30 32 30 26 25 25 24 26 25 22 18 16 15 14 13 10 8 6 6 6 6 5 4 5 7 8 9 9 7 5 5 5
0 0 0 0 0 0 1 1 2 6 14 21 24 24 24 25 27 32 34 34 32 29 27 27 27 25 20 17 15 13 12 10 8 6 5 5 6 6 4 4 5 7 8 9 10 8 5 5 5

GEFSSGP_con_prob3kmehi_186.txt.gz
EHI
7 16 34 44 29 8 1 0 0 0 0 0 0 0 0 0 0 2 5 10 11 8 4 3 3 3 3 3 3 3 3 3 3 3 3 3 3 4 4 4 3 3 3 3 3 3 3 3 3
7 15 27 28 16 4 0 0 0 0 0 0 0 0 1 1 1 3 6 10 11 8 6 5 4 3 3 3 3 3 3 3 3 3 3 3 3 3 4 3 3 3 3 3 3 3 3 3 3
8 13 16 11 4 1 0 0 0 0 0 0 1 1 2 2 3 4 7 11 12 11 10 9 5 3 3 3 3 3 3 3 3 3 3 3 3 3 3 3 3 3 3 3 3 3 3 3 3
10 11 8 3 1 0 0 0 0 0 0 1 2 3 3 3 3 4 7 11 15 16 15 10 6 3 3 3 3 3 3 3 3 3 3 3 3 3 3 3 3 3 3 3 3 3 3 3 3
10 7 3 1 0 0 0 0 0 0 0 1 4 5 4 3 3 4 7 12 17 21 18 11 8 5 4 3 3 3 3 3 3 3 3 3 3 3 3 3 3 3 3 3 3 3 3 3 3
4 2 0 0 0 0 0 0 0 0 0 2 6 7 5 3 4 6 9 13 19 23 19 13 10 7 5 4 4 4 4 4 4 4 4 4 3 3 3 3 3 3 3 3 3 3 3 3 3
1 0 0 0 0 0 0 0 0 0 1 2 6 9 8 6 7 8 10 14 18 19 16 12 10 9 7 6 5 5 5 6 6 6 6 5 4 3 3 3 4 4 4 3 3 3 3 3 3
0 0 0 0 0 0 0 0 0 0 1 3 7 12 14 11 9 9 10 12 14 12 10 10 11 12 11 9 7 7 7 7 6 6 6 6 5 4 3 4 4 5 5 4 4 3 3 3 3
0 0 0 0 0 0 0 0 0 0 2 6 12 18 20 16 11 9 9 11 12 10 8 10 13 14 14 13 11 9 8 7 6 6 7 7 6 4 3 3 4 4 5 5 4 4 3 3 4
0 0 0 0 0 0 0 1 1 1 5 12 19 24 23 18 14 14 14 14 15 13 11 12 12 14 17 16 13 11 10 9 7 6 7 8 7 4 3 3 3 4 4 4 4 3 3 4 4
0 0 0 0 0 0 1 2 3 4 9 18 26 27 23 19 19 22 23 21 20 18 15 14 14 16 20 18 13 12 12 12 10 8 8 8 7 5 5 4 4 4 4 3 3 3 3 3 4
0 0 0 0 0 1 2 3 4 7 12 20 27 27 22 18 20 27 29 27 26 23 20 19 19 21 24 22 15 12 13 15 14 10 8 7 8 7 7 8 7 4 3 3 3 3 3 3 3
0 0 0 0 0 2 3 4 6 9 13 20 27 28 23 19 21 29 34 33 31 28 26 26 25 26 27 26 18 11 11 14 15 13 9 8 9 9 9 10 9 5 4 4 3 3 3 3 3
0 0 0 0 0 2 3 4 5 8 13 22 29 31 28 25 29 35 38 37 36 33 33 35 33 30 28 24 17 10 8 11 14 14 12 10 9 9 8 7 8 6 4 4 4 4 3 3 3
0 0 0 0 0 2 3 3 4 7 12 21 30 34 35 36 40 45 44 42 41 42 43 41 37 35 31 23 15 9 7 10 14 17 16 11 8 7 6 5 5 5 4 5 5 4 4 3 3
0 0 0 0 0 1 2 2 3 7 13 20 28 35 40 44 48 51 50 48 49 50 50 42 38 41 38 26 18 12 10 13 17 19 17 11 7 7 6 5 4 4 4 4 5 4 3 3 3
0 0 0 0 0 1 2 2 3 7 14 21 29 38 45 47 50 53 53 54 56 57 55 47 43 45 42 31 23 16 15 18 20 19 17 11 6 5 6 5 4 4 4 4 4 5 5 5 4
0 0 0 0 0 1 2 2 4 8 15 26 37 44 48 49 50 55 57 57 60 62 60 54 51 50 46 36 27 22 20 21 21 21 19 14 8 5 5 4 4 4 4 4 4 6 7 6 6
0 0 0 0 0 1 2 2 5 9 16 30 43 50 53 52 54 59 60 60 63 64 62 58 55 53 49 42 33 27 23 21 21 23 24 20 13 8 6 4 4 3 4 4 4 5 5 6 6
0 0 0 0 0 1 1 3 6 9 15 27 40 49 53 55 59 63 63 63 65 65 62 60 57 55 52 45 38 31 25 23 22 24 27 25 19 14 9 6 5 4 5 4 4 4 4 4 4
0 0 0 0 0 0 1 3 8 11 14 21 30 40 48 55 62 66 66 65 66 65 62 60 59 57 54 48 41 35 30 26 25 27 29 28 24 19 14 9 7 7 6 5 4 5 5 4 4
0 0 0 0 0 0 0 4 10 14 15 16 23 34 45 55 64 68 68 67 66 63 61 61 59 58 56 51 45 39 33 29 29 30 32 31 27 22 18 14 12 12 9 6 6 7 6 5 5
0 0 0 0 0 0 0 3 8 13 15 18 22 33 46 56 65 71 70 68 64 59 58 58 57 57 55 51 46 40 33 28 29 31 32 32 29 26 21 18 18 18 14 10 9 8 7 6 6
0 0 0 0 0 0 0 2 7 11 15 21 25 33 46 58 66 70 71 69 63 57 54 54 54 53 51 48 45 41 35 30 29 30 30 29 29 27 23 21 23 23 18 14 13 11 8 6 7
0 0 0 0 0 0 0 3 7 10 15 22 28 34 46 58 64 65 67 68 65 58 53 51 50 48 46 43 40 39 37 32 29 27 26 26 26 25 24 25 28 25 19 15 15 14 10 8 8
0 0 0 0 0 0 1 5 10 12 15 23 28 33 42 51 57 57 59 63 62 58 53 50 49 47 44 41 38 38 37 32 26 24 24 24 24 25 28 31 31 27 20 16 17 17 14 13 13
0 0 0 0 0 0 2 8 13 15 17 23 29 32 37 42 46 48 49 51 54 55 53 51 51 50 46 41 37 36 35 30 25 23 22 22 22 24 29 32 30 28 24 21 20 20 18 17 16
0 0 0 0 1 0 3 9 15 17 20 25 30 32 34 37 39 41 41 43 47 50 52 52 52 52 48 41 37 35 34 32 27 23 21 19 19 21 25 26 26 26 26 24 23 21 18 15 15
0 0 0 0 1 0 2 6 12 17 22 29 34 36 36 37 39 41 42 45 47 49 52 54 54 53 49 44 40 37 36 33 30 26 22 20 21 22 23 23 21 21 21 21 22 19 14 12 13
0 0 0 1 1 1 1 4 9 15 24 33 39 41 40 39 43 45 47 52 51 49 51 55 55 53 51 48 45 41 37 35 32 27 23 23 25 25 24 23 20 16 15 17 19 16 12 11 14

GEFSSGP_con_prob3kmehi_192.txt.gz
EHI
10 7 4 3 2 1 0 0 0 0 0 0 0 1 1 1 0 0 1 3 6 6 5 5 6 5 4 4 4 3 3 3 3 3 4 5 6 6 6 6 7 7 6 4 3 3 3 3 3
6 5 3 3 2 1 0 0 0 0 0 0 0 1 2 1 1 1 1 4 6 6 4 5 6 6 5 5 4 3 3 4 4 3 3 4 6 6 5 5 5 5 5 4 4 3 3 3 3
4 3 3 2 1 0 0 0 0 0 1 0 0 0 1 2 3 3 3 5 6 6 5 6 10 11 9 7 6 4 4 5 5 4 4 5 6 6 6 5 5 5 5 5 5 4 3 3 3
5 4 2 1 0 0 0 1 1 2 1 1 0 0 1 3 6 7 6 7 7 6 6 9 14 15 12 10 8 6 6 6 6 6 6 6 6 6 6 5 5 5 6 6 6 5 4 3 3
6 4 1 0 0 0 0 2 4 5 4 2 2 2 3 7 13 13 10 8 7 7 8 12 17 17 14 11 9 7 6 6 6 6 6 6 6 5 4 4 4 5 6 6 6 4 3 3 3
4 2 0 0 0 0 0 3 6 8 7 4 3 3 5 13 20 19 13 11 8 7 8 11 14 15 12 10 9 7 6 6 6 6 6 6 6 5 4 3 3 4 4 5 5 4 3 3 3
1 0 0 0 0 0 0 3 6 9 7 4 3 4 7 15 23 23 17 13 10 8 7 7 9 10 9 8 8 7 6 6 6 6 6 6 6 5 4 3 3 3 3 4 4 4 4 3 3
0 0 0 0 0 0 1 2 5 7 7 4 3 5 8 17 25 27 21 15 12 9 6 4 5 6 6 6 6 6 6 6 6 6 6 6 6 6 5 4 3 3 4 3 3 4 4 4 4
0 0 0 0 0 0 1 2 3 6 7 7 6 7 12 20 29 32 27 19 13 9 5 3 4 4 4 4 4 5 6 6 6 6 6 6 6 6 6 5 4 4 5 4 3 4 4 4 4
0 0 0 0 1 1 2 3 4 6 8 10 11 13 17 23 29 32 28 21 15 10 7 5 4 4 4 3 3 4 5 6 6 5 4 4 4 4 5 6 5 5 5 3 3 4 4 3 2
0 1 1 1 3 3 3 4 6 7 8 12 17 19 21 22 24 26 25 21 16 12 11 9 6 4 4 3 2 3 4 5 5 4 3 3 3 3 4 4 4 4 3 1 1 1 1 1 0
1 2 3 4 5 6 6 5 6 7 10 15 19 20 21 21 21 21 22 21 19 18 16 13 8 4 3 1 1 2 3 4 4 3 3 3 3 3 3 2 2 1 1 0 0 0 0 0 0
3 3 4 5 6 6 6 4 6 10 16 19 18 17 18 19 19 20 21 23 25 24 21 17 13 8 4 2 2 3 3 3 3 3 3 2 2 2 2 1 0 0 0 0 0 0 0 0 0
3 3 4 4 3 4 4 4 8 17 23 22 17 16 16 17 18 21 22 25 28 27 22 18 16 13 9 6 3 3 3 3 2 2 1 1 1 1 1 0 0 0 0 0 0 0 0 0 0
3 3 3 2 1 1 3 5 12 24 29 26 21 18 17 17 19 21 23 25 27 28 24 19 16 14 12 8 4 3 2 2 2 1 1 0 0 0 0 0 0 0 0 0 0 0 0 0 0
2 2 2 1 0 0 1 3 12 24 31 31 27 23 20 21 24 24 24 25 28 30 27 20 14 13 11 7 3 1 1 2 2 2 1 0 0 0 0 0 0 0 0 0 0 0 0 0 0
1 1 1 0 0 0 1 3 10 21 29 33 32 29 29 30 32 32 31 31 31 30 27 21 15 12 9 5 2 1 1 1 3 3 1 0 0 0 0 0 0 0 0 0 0 0 0 0 0
0 0 0 0 0 1 2 6 13 20 28 34 35 33 34 37 40 42 42 40 36 32 28 24 19 13 9 6 3 2 1 1 2 2 1 1 1 1 1 0 0 0 0 0 0 0 0 0 0
0 0 0 0 0 2 4 9 15 21 28 34 33 32 34 38 44 48 50 49 44 39 35 30 25 19 13 10 6 3 2 1 1 2 2 3 3 2 1 0 0 0 0 0 0 0 0 0 0
0 0 0 0 1 3 5 9 13 18 24 27 28 30 34 37 43 49 54 55 53 48 42 35 30 25 20 14 7 4 3 2 1 1 2 3 3 2 2 1 1 1 0 0 0 0 0 0 0
0 0 0 1 2 4 5 7 9 12 17 22 25 31 35 38 43 49 55 59 58 53 48 40 33 28 23 16 9 5 3 3 2 2 2 2 3 3 2 2 2 1 0 0 0 0 0 0 0
0 0 0 1 2 3 4 5 7 10 15 20 26 32 37 40 43 47 52 56 57 55 51 46 39 32 25 18 10 5 3 3 3 3 2 2 2 2 3 3 3 2 0 0 0 0 0 0 0
0 0 0 1 1 1 2 4 6 10 16 22 27 34 39 42 43 44 46 48 50 51 49 47 43 36 30 23 13 6 5 3 3 3 4 3 2 3 4 4 4 2 1 0 0 0 0 0 0
0 0 0 0 0 0 1 1 4 8 15 24 30 35 41 44 43 41 40 41 43 45 46 46 44 38 32 26 17 11 9 7 5 5 6 5 4 4 5 6 4 2 1 1 1 1 0 0 0
0 0 0 0 0 0 0 1 2 6 13 23 30 35 41 45 43 38 37 37 41 43 44 43 41 36 29 25 21 16 14 13 10 8 7 5 3 3 4 5 3 1 1 1 2 2 1 0 0
0 0 0 0 0 0 1 2 4 8 15 24 30 35 41 43 40 36 34 35 39 43 44 41 39 34 28 25 23 20 19 16 12 9 7 5 2 2 4 5 3 1 1 1 2 2 1 0 0
0 0 0 0 0 0 1 4 7 12 21 27 31 36 39 39 37 34 32 32 35 39 41 40 38 35 29 25 23 21 19 16 11 8 7 6 4 3 5 6 5 3 2 1 1 1 1 0 0
0 0 0 0 0 0 1 3 7 14 23 30 34 36 36 34 33 32 31 31 32 35 37 38 37 34 29 24 21 19 17 14 11 8 7 6 4 3 4 6 5 3 2 1 0 0 0 0 0
0 0 0 0 0 0 0 1 5 13 22 30 35 36 34 31 31 33 34 35 34 35 37 36 36 33 29 25 20 17 15 13 10 9 7 6 5 4 5 5 4 3 1 1 0 1 2 1 1
0 0 0 0 0 0 0 1 5 13 21 29 36 38 35 31 32 35 38 39 39 38 38 36 34 31 28 25 21 17 15 13 10 8 8 7 6 5 6 6 5 3 2 2 1 2 3 2 2

GEFSSGP_con_prob3kmehi_198.txt.gz
EHI
8 4 1 0 0 0 0 0 0 0 0 0 0 0 0 1 0 0 0 0 0 0 1 2 3 3 1 0 0 0 0 0 0 1 3 3 3 3 4 4 4 3 3 2 1 0 0 0 0
3 2 1 0 0 0 0 0 0 0 0 0 0 0 0 1 0 0 0 0 0 0 0 2 4 4 2 1 1 1 1 0 0 0 1 2 3 3 3 4 3 3 2 1 0 0 0 0 0
1 2 1 0 0 0 0 0 0 0 0 0 0 0 0 0 0 0 0 0 0 0 0 2 5 5 4 3 2 2 2 1 1 1 1 2 3 3 3 3 2 1 1 0 0 0 0 0 0
1 1 1 0 0 0 0 0 0 0 0 0 0 0 0 0 0 0 0 0 0 0 0 2 5 6 5 4 3 3 3 3 2 2 2 3 3 3 2 2 1 0 0 0 0 0 0 0 0
0 0 0 0 0 0 0 0 0 0 0 0 0 0 0 0 0 0 0 0 0 0 0 1 4 6 6 5 4 3 3 2 3 3 3 3 3 3 3 2 1 0 0 0 0 0 0 0 0
0 0 0 0 0 0 0 0 0 0 0 0 0 0 0 0 0 0 1 0 0 0 0 1 3 4 4 4 3 2 1 1 1 2 2 2 3 3 3 3 2 0 0 0 0 0 0 0 0
0 0 0 0 0 0 0 0 1 1 0 0 0 0 0 0 0 1 2 1 0 0 0 0 1 2 2 2 2 2 1 0 0 1 1 1 1 2 2 2 1 0 0 0 0 0 0 0 0
0 0 0 0 0 0 0 0 1 2 1 0 0 0 1 2 2 2 1 0 0 0 0 0 0 0 1 1 1 1 1 0 0 0 0 0 0 1 1 1 0 0 0 0 0 0 0 0 0
0 0 0 0 0 0 0 0 1 2 1 0 0 2 4 6 7 5 2 1 0 0 1 1 1 0 0 0 1 1 0 0 0 0 0 0 0 0 0 0 0 0 0 0 0 0 0 0 0
0 0 0 0 0 0 0 0 1 1 1 0 1 4 8 10 10 7 3 1 0 0 1 2 2 0 0 0 0 0 0 0 0 0 0 0 0 0 0 0 0 0 0 0 0 0 0 0 0
1 1 0 0 1 1 0 0 0 0 0 0 2 7 12 12 10 8 4 1 1 0 1 1 1 0 0 0 0 0 0 0 0 0 0 0 0 0 0 0 0 0 0 0 0 0 0 0 0
2 2 1 0 1 1 1 0 0 0 1 2 4 9 13 12 10 8 4 2 2 1 1 1 0 0 0 0 0 0 0 0 0 0 0 0 0 0 0 0 0 0 0 0 0 0 0 0 0
2 2 1 0 1 1 1 0 0 1 3 5 7 11 14 12 8 6 4 3 3 2 2 1 0 0 0 0 0 0 0 0 0 0 0 0 0 0 0 0 0 0 0 0 0 0 0 0 0
1 1 0 0 0 0 0 0 1 4 7 9 9 11 12 9 6 5 4 3 3 2 1 1 0 0 0 0 0 0 0 0 0 0 0 0 0 0 0 0 0 0 0 0 0 0 0 0 0
0 0 0 0 0 0 0 0 2 8 13 12 9 9 8 6 4 4 4 3 2 1 1 1 1 1 0 0 0 0 0 0 0 0 0 0 0 0 0 0 0 0 0 0 0 0 0 0 0
0 0 0 0 0 0 0 0 3 10 14 11 8 7 6 5 4 3 2 3 3 2 1 1 3 2 1 0 0 0 0 0 0 0 0 0 0 0 0 0 0 0 0 0 0 0 0 0 0
0 0 0 0 0 0 0 0 3 10 13 9 6 7 7 6 4 3 3 3 5 4 2 2 3 2 1 0 0 1 1 1 0 0 0 0 0 0 0 0 0 0 0 0 0 0 0 0 0
0 0 0 0 0 0 1 2 6 10 11 8 5 6 7 7 5 4 5 4 5 6 5 3 2 2 1 1 1 2 2 1 1 0 0 0 0 0 0 0 0 0 0 0 0 0 0 0 0
0 0 0 1 2 1 2 5 9 10 9 7 6 6 8 7 6 6 7 6 5 7 6 5 4 3 3 3 3 2 1 1 1 1 1 0 0 0 0 0 0 0 0 0 0 0 0 0 0
0 0 0 2 3 3 3 6 10 10 8 7 6 7 9 9 8 8 8 8 8 7 6 6 5 4 4 4 3 2 0 0 1 2 2 0 0 0 0 0 0 0 0 0 0 0 0 0 0
0 0 0 1 3 3 4 6 9 9 7 5 5 7 10 10 9 8 9 11 12 9 7 7 7 6 5 5 4 2 1 0 1 1 1 0 0 0 0 0 0 0 0 0 0 0 0 0 0
0 0 0 1 3 3 3 4 5 7 6 4 4 7 9 10 10 9 10 12 13 13 11 9 9 8 7 6 5 3 2 1 0 0 0 0 0 0 0 0 0 0 0 0 0 0 0 0 0
0 0 0 1 2 3 3 3 3 4 5 5 6 7 8 10 11 11 11 12 13 15 15 13 12 11 11 9 6 4 2 1 0 0 0 0 0 0 0 0 0 0 0 0 0 0 0 0 0
0 0 0 1 1 2 2 2 1 2 4 6 7 8 9 9 10 12 14 14 16 20 20 17 16 15 13 11 7 4 3 1 0 0 0 0 0 0 0 0 0 0 0 0 0 0 0 0 0
0 0 0 0 0 1 1 1 1 1 3 5 7 8 9 9 9 13 17 18 21 24 24 22 20 17 13 10 7 5 2 1 1 1 1 1 1 0 0 0 0 0 0 0 0 0 0 0 0
0 0 0 0 0 0 0 0 2 3 4 6 7 8 9 9 10 14 17 19 21 24 26 25 21 16 11 8 7 5 3 3 3 3 2 2 1 0 0 0 0 0 0 0 0 0 0 0 0
0 0 0 0 0 0 0 2 4 6 7 8 8 8 9 10 11 14 16 16 18 21 25 24 20 15 10 8 7 6 6 5 5 4 3 2 1 0 0 0 0 0 0 0 1 0 0 0 0
0 0 0 0 0 0 0 2 4 6 8 9 8 8 9 10 11 13 13 12 14 18 22 21 18 15 12 9 8 7 7 5 4 3 2 1 0 0 0 0 0 0 0 0 0 0 0 0 0
0 0 0 0 0 0 0 1 2 5 7 9 8 8 9 10 12 12 10 10 11 15 18 17 16 15 12 9 8 8 6 3 2 1 1 0 0 0 0 0 0 1 0 0 0 0 0 0 0
0 0 0 0 0 0 0 0 1 4 7 9 10 10 10 11 12 11 9 9 11 14 16 15 14 13 11 9 9 7 5 3 2 1 1 0 0 0 0 0 0 1 0 0 0 0 0 0 0

GEFSSGP_con_prob3kmehi_204.txt.gz
EHI
11 9 7 4 1 0 0 0 0 0 0 0 0 0 0 0 0 0 0 0 0 1 2 3 3 1 0 0 0 0 0 0 0 0 0 0 0 0 1 1 0 0 0 0 0 0 0 0 0
8 7 6 3 1 0 0 0 0 0 0 0 0 0 0 0 0 0 0 0 0 0 1 3 4 2 0 0 0 0 0 0 0 0 0 0 0 1 2 1 0 0 0 0 0 0 0 0 0
6 6 4 2 0 0 0 0 0 0 0 0 0 0 0 0 0 0 0 0 0 0 1 4 5 4 2 0 0 0 0 0 0 0 0 0 0 1 2 1 0 0 0 0 0 0 0 0 0
5 5 2 0 0 0 0 0 0 0 0 0 0 0 0 0 0 0 0 0 0 0 1 4 4 4 3 1 0 0 0 0 0 0 0 0 0 1 1 0 0 0 0 0 0 0 0 0 0
4 2 1 0 0 0 0 0 0 0 0 0 0 0 1 1 0 0 0 0 0 0 1 2 3 4 3 1 0 1 1 0 0 0 0 0 0 0 0 0 0 0 0 0 0 0 0 0 0
1 0 0 0 0 0 0 0 0 0 0 0 0 1 2 2 1 0 0 0 0 0 0 1 3 4 3 1 1 2 2 1 0 0 0 0 0 0 0 0 0 0 0 0 0 0 0 0 0
0 0 0 0 0 0 0 0 0 0 0 0 0 1 4 4 3 2 1 0 0 0 0 1 2 4 3 1 1 2 2 1 0 0 0 0 0 0 0 0 0 0 0 0 0 0 0 0 0
0 0 0 0 0 0 0 0 0 0 0 0 0 1 4 7 6 4 1 0 0 0 0 0 1 2 2 1 1 2 1 0 0 0 0 0 0 0 0 0 0 0 0 0 0 0 0 0 0
0 0 0 0 0 0 0 0 0 0 0 0 0 1 5 9 9 6 2 1 2 2 1 0 0 1 1 0 1 1 0 0 0 0 0 0 0 0 0 0 0 0 0 0 0 0 0 0 0
0 0 0 0 0 0 0 0 0 0 0 0 1 3 6 8 9 6 3 2 3 3 2 0 0 0 0 0 0 0 0 0 0 0 0 0 0 0 0 0 0 0 0 0 0 0 0 0 0
0 0 0 0 0 0 0 0 0 0 0 0 2 5 6 7 6 5 4 2 2 3 2 1 0 0 0 0 0 0 0 0 0 0 0 0 0 0 0 0 0 0 0 0 0 0 0 0 0
0 0 0 0 0 0 0 0 0 0 0 0 2 5 7 6 5 4 3 2 2 3 3 1 0 0 0 0 1 1 0 0 0 0 0 0 0 0 0 0 0 0 0 0 0 0 0 0 0
0 0 0 0 0 0 0 0 0 0 0 1 4 7 7 6 5 4 2 1 1 3 3 3 2 2 1 1 1 1 1 0 0 0 0 0 0 0 0 0 0 0 0 0 0 0 0 0 0
0 0 0 0 0 0 0 0 0 1 1 3 6 8 7 6 5 3 2 2 2 3 4 4 4 5 4 2 0 1 1 0 0 1 1 0 0 0 0 0 0 0 0 0 0 0 0 0 0
0 0 0 0 0 0 0 0 2 3 3 4 7 8 7 5 4 3 3 4 4 4 6 6 5 6 6 2 0 0 0 0 0 1 2 2 1 0 0 0 0 0 0 0 0 0 0 0 0
0 0 0 0 0 0 0 2 5 6 4 4 6 8 8 6 4 2 2 3 5 6 8 8 6 6 6 4 2 0 0 0 0 2 3 3 2 1 1 0 0 0 0 0 0 0 0 0 0
0 0 0 0 0 0 0 3 8 7 4 3 5 6 7 7 5 3 2 3 6 9 12 12 10 8 7 6 4 2 0 1 1 1 3 4 3 3 2 1 0 0 0 0 0 0 0 0 0
0 0 0 0 0 0 1 5 10 10 6 4 4 5 6 6 7 6 5 6 10 14 16 16 15 13 11 8 6 4 2 2 1 1 2 3 3 3 2 1 0 0 0 0 0 0 0 0 0
0 0 0 0 0 0 1 5 12 14 9 6 5 5 5 6 9 10 10 11 15 20 22 22 22 21 16 11 8 5 3 2 1 0 1 3 4 4 3 2 1 1 1 1 1 1 0 0 0
0 0 0 0 0 0 0 4 12 15 12 9 6 4 4 6 10 13 14 16 20 25 27 28 29 27 22 14 9 6 4 2 0 0 1 2 4 4 4 4 4 3 3 2 2 2 1 0 0
0 0 0 0 0 0 0 3 10 15 14 12 10 7 5 6 9 13 16 19 24 27 27 28 32 32 27 18 11 9 7 3 2 2 1 1 2 3 3 4 6 5 4 3 3 3 3 1 1
0 0 0 0 0 0 0 2 8 13 14 15 15 13 9 7 7 9 14 18 22 24 25 29 33 34 31 24 18 16 12 7 5 3 2 1 1 2 3 4 6 6 4 3 3 4 4 3 2
0 0 0 0 0 0 0 1 5 9 12 15 17 17 13 9 6 7 11 15 18 20 24 30 34 35 33 28 25 23 19 13 9 6 4 3 3 2 3 4 5 6 4 3 4 4 4 3 3
0 0 0 0 0 0 0 0 2 5 8 11 14 17 17 13 9 9 12 15 16 17 22 29 34 36 33 30 28 28 24 18 14 10 6 5 5 4 4 4 6 6 6 5 5 4 4 4 5
0 0 0 0 0 0 0 0 2 4 7 9 12 17 20 19 14 12 15 19 19 19 21 26 32 34 32 29 28 28 26 21 17 13 10 7 5 5 4 4 6 6 7 6 6 5 5 6 6
0 0 0 0 0 0 0 0 2 5 7 9 13 19 24 23 17 15 19 22 22 22 22 25 29 30 29 28 27 28 26 21 17 16 13 10 7 5 5 4 4 4 4 5 5 5 5 6 6
0 0 0 0 0 0 0 0 2 5 8 11 16 22 25 24 19 18 22 24 24 24 24 24 26 29 27 26 26 27 25 21 18 17 16 12 8 6 6 4 2 2 3 4 6 6 5 6 7
0 0 0 0 0 0 0 0 1 4 9 14 19 24 26 25 22 23 26 26 25 25 24 23 26 28 26 25 25 24 23 21 20 19 17 13 10 9 8 7 5 5 6 7 8 7 5 6 7
0 0 0 0 0 0 0 0 1 4 10 15 19 24 28 28 28 30 33 31 28 27 26 25 26 26 25 25 24 22 20 20 21 19 16 13 11 11 10 9 8 8 9 11 10 7 4 3 4
0 0 0 0 0 0 0 1 2 5 10 14 18 23 28 30 33 38 41 37 31 29 28 27 25 24 24 24 24 20 18 19 20 19 15 12 11 11 10 9 9 10 11 12 11 7 2 1 1

GEFSSGP_con_prob3kmehi_210.txt.gz
EHI
17 21 34 43 31 9 0 0 0 0 0 0 0 0 0 0 0 0 2 4 6 5 4 6 7 4 1 0 0 0 0 0 0 0 0 0 0 0 1 1 1 2 3 3 3 3 3 2 3
17 25 36 35 20 6 0 0 0 0 0 0 0 0 0 0 0 0 1 2 4 7 7 8 8 4 0 0 0 0 0 0 0 0 0 1 1 0 0 0 1 2 3 3 3 3 3 2 2
19 29 33 21 7 1 0 0 0 0 0 0 0 0 0 0 0 0 0 0 3 9 11 10 7 4 1 1 0 0 0 0 0 0 1 2 1 0 0 0 1 2 3 3 3 3 3 1 1
24 28 22 8 1 0 0 0 0 0 0 1 1 2 1 0 0 0 0 0 3 8 11 9 7 5 2 1 0 0 0 0 0 0 1 2 1 0 0 0 1 2 3 3 3 3 2 1 0
25 20 10 2 0 0 0 0 0 0 0 1 3 4 3 1 1 1 1 1 3 7 8 8 8 6 3 1 1 1 0 0 0 0 1 2 1 0 0 0 1 3 3 3 3 2 1 0 0
16 9 2 0 0 0 0 0 0 0 0 1 4 6 5 3 3 3 3 4 6 7 8 7 7 7 5 3 3 2 1 0 0 0 1 1 0 0 0 1 2 3 3 3 3 1 0 0 0
7 3 0 0 0 0 0 0 0 0 0 1 3 7 7 5 4 4 6 8 7 6 6 6 6 7 7 7 5 3 1 0 0 0 0 0 0 0 0 1 2 3 3 3 2 1 0 0 1
2 1 0 0 0 0 0 0 0 0 0 1 3 7 8 6 5 5 6 8 7 4 3 5 7 9 10 9 7 5 2 0 0 1 1 1 0 0 0 1 2 3 2 1 1 0 0 1 2
0 0 0 0 0 0 0 0 1 1 2 2 4 8 9 7 4 5 5 6 6 4 3 4 7 9 9 9 10 8 5 3 3 3 4 3 1 0 0 1 3 2 1 1 1 1 1 2 2
0 0 0 0 0 0 0 0 0 1 3 5 7 9 10 7 5 5 6 6 6 5 4 4 6 8 7 8 11 10 7 7 6 6 6 5 2 0 0 2 3 2 1 2 3 3 2 2 2
0 0 0 0 0 0 0 0 0 0 2 7 9 11 11 10 9 9 8 8 7 8 8 7 8 10 10 9 9 9 9 10 9 6 6 5 3 2 2 3 4 3 2 3 4 3 2 1 1
0 0 0 0 0 0 0 0 0 0 2 7 11 11 11 13 14 14 13 11 10 10 11 11 12 14 16 13 10 8 9 10 9 7 5 5 5 4 4 5 6 4 4 4 3 2 1 1 1
0 0 0 0 0 0 1 0 0 0 2 7 11 10 8 11 16 17 17 15 13 11 11 13 15 17 17 17 14 10 9 9 10 8 6 5 7 7 8 8 8 5 5 5 3 2 2 1 0
0 0 0 0 0 0 0 0 0 1 4 8 10 8 6 8 14 19 20 18 17 16 16 17 19 22 19 17 16 11 8 8 8 8 8 8 8 9 10 9 7 5 4 5 5 4 3 2 1
0 0 0 0 0 0 0 0 0 1 4 8 8 7 7 9 14 20 21 21 24 25 25 22 22 25 23 17 13 9 6 6 7 9 11 10 10 10 10 9 6 5 4 6 7 5 4 2 1
0 0 0 0 0 0 0 0 0 1 4 7 8 9 13 16 18 20 23 26 31 35 32 24 22 25 25 19 14 9 8 8 9 11 11 11 10 11 10 8 7 7 7 6 6 6 4 2 2
0 0 0 0 0 0 0 1 1 1 4 7 9 15 23 25 22 21 24 30 38 42 39 29 24 27 28 24 19 14 12 13 13 13 12 12 12 10 9 8 9 9 7 6 5 4 4 3 3
0 0 0 0 0 0 0 0 1 1 3 8 14 24 33 34 28 24 24 30 40 45 44 36 32 32 33 30 27 22 18 18 18 18 17 19 19 14 11 11 10 9 9 8 6 5 4 4 4
0 0 0 0 0 0 0 0 1 1 3 8 17 28 38 41 37 32 28 30 39 47 47 43 40 38 36 34 33 30 26 24 24 25 24 25 25 21 15 12 11 11 11 12 10 8 6 5 4
0 0 0 0 0 0 0 1 2 3 3 8 16 24 33 41 45 42 36 35 41 48 49 48 47 43 38 36 34 32 29 28 28 29 28 26 25 22 16 12 10 10 12 13 13 10 7 6 6
0 0 0 0 0 0 0 2 4 4 4 8 14 20 26 36 47 48 42 40 44 49 50 51 52 47 40 35 31 29 28 27 28 30 29 24 20 19 17 15 11 9 11 13 13 11 7 6 6
0 0 0 0 0 0 0 2 4 5 5 7 13 19 23 32 45 49 44 42 44 47 51 55 55 50 41 33 28 27 26 26 26 27 27 25 20 19 21 22 18 13 12 12 12 9 6 6 6
0 0 0 0 0 0 0 1 3 5 6 8 12 19 24 31 42 47 45 42 41 43 50 56 58 53 43 35 30 28 27 26 25 24 26 27 25 23 23 25 25 20 15 13 12 10 9 9 9
0 0 0 0 0 0 0 0 1 3 5 7 11 19 27 33 40 45 46 44 40 41 49 55 58 57 49 40 35 31 28 25 24 24 26 28 27 24 23 26 27 23 18 15 14 12 13 14 13
0 0 0 0 0 0 0 0 0 1 3 7 12 21 30 36 40 44 48 47 42 42 48 55 59 58 50 42 38 34 30 27 26 26 27 27 25 22 22 23 23 20 16 15 14 13 15 17 16
0 0 0 0 0 0 0 1 2 1 3 8 15 23 31 37 40 42 47 50 48 47 51 57 62 61 51 43 41 37 34 32 31 29 27 25 21 19 20 19 17 13 10 9 11 14 16 19 20
0 0 0 0 0 0 1 3 4 4 6 12 17 22 29 36 40 42 48 53 54 54 56 60 65 63 53 46 43 39 37 36 35 32 30 26 21 18 18 17 15 11 7 6 9 13 17 20 22
0 0 0 0 0 0 1 4 7 9 12 15 19 23 29 35 40 44 51 56 59 60 62 64 66 63 55 49 45 41 39 38 37 34 32 29 23 18 16 17 16 12 8 9 10 13 16 17 17
0 0 0 0 0 0 1 3 6 11 14 18 22 25 29 34 39 46 53 58 60 63 65 66 66 62 56 51 49 46 42 39 37 37 35 31 24 18 16 17 17 13 10 9 10 10 10 9 9
0 0 0 0 0 0 0 1 3 8 14 18 22 26 30 34 38 46 54 57 60 64 66 68 66 61 58 56 53 50 45 40 38 39 36 31 24 17 15 16 16 14 9 7 8 7 6 5 3

GEFSSGP_con_prob3kmehi_216.txt.gz
EHI
19 10 3 1 0 0 0 0 0 0 0 0 0 0 0 0 0 0 0 0 1 0 1 3 4 1 0 0 0 0 0 0 0 0 0 0 1 2 2 2 1 0 0 1 1 1 1 2 3
11 7 3 1 0 0 0 0 0 0 1 1 0 0 0 0 0 0 0 0 1 0 0 2 2 1 0 0 0 0 0 0 0 0 0 0 0 1 1 1 0 0 0 0 0 0 0 1 2
6 5 3 1 0 0 0 0 0 1 2 2 1 0 0 0 0 0 0 1 1 0 0 1 1 1 1 0 0 0 0 0 0 0 0 0 0 0 0 0 0 0 0 0 0 0 1 1 1
6 5 2 1 1 0 0 0 0 2 3 2 1 0 0 0 1 1 2 2 1 0 0 2 4 4 2 1 0 0 0 0 0 0 0 0 0 0 0 0 0 0 0 0 0 0 1 2 1
5 3 1 0 0 0 0 0 1 2 3 2 1 0 0 2 5 6 5 3 1 0 1 4 7 6 3 1 0 1 1 1 0 0 0 0 0 0 0 0 0 0 0 0 0 0 1 1 1
5 3 0 0 0 0 0 0 2 4 4 2 0 0 1 5 10 10 6 2 0 0 0 3 5 5 3 1 0 1 2 1 0 0 0 0 0 0 0 0 0 0 0 0 0 0 0 1 1
6 3 1 0 0 0 0 0 1 3 3 1 0 0 1 6 12 12 6 1 0 0 0 1 2 2 2 1 0 1 1 1 0 0 0 0 0 0 0 0 0 0 0 0 0 0 0 0 1
5 3 1 0 0 0 0 0 1 2 2 1 0 0 2 7 11 12 7 2 1 1 0 0 0 1 1 0 0 0 0 0 1 1 0 0 0 0 0 0 0 0 0 0 0 1 1 1 1
2 1 0 0 0 0 0 0 1 2 2 1 0 2 4 8 11 12 9 5 3 2 1 0 0 1 1 1 0 0 0 0 1 1 0 0 0 0 0 1 1 1 1 0 1 2 2 2 1
1 0 0 0 0 0 0 0 1 2 4 4 3 5 9 11 12 13 11 6 4 2 1 0 1 2 2 2 1 0 0 0 1 1 0 0 0 0 0 1 2 2 1 1 1 2 2 1 0
0 0 0 0 0 0 0 0 1 2 5 8 9 9 11 12 13 14 11 6 4 2 1 0 1 2 3 2 1 0 0 0 0 0 0 0 0 0 0 0 1 1 1 0 1 1 1 0 0
0 0 0 0 0 0 1 1 1 1 5 11 13 12 11 12 12 13 11 8 5 4 2 1 2 4 3 2 0 0 0 0 0 0 0 0 0 0 0 0 0 0 0 0 0 0 0 0 0
0 0 0 0 0 1 2 2 2 4 8 12 14 13 12 11 10 11 12 10 8 7 6 5 5 5 3 1 0 0 0 0 0 0 0 0 0 0 0 0 0 0 0 0 0 0 0 0 0
0 0 0 0 0 1 4 4 5 8 11 13 15 15 13 11 9 11 13 13 11 11 11 9 8 6 3 1 0 0 0 0 0 0 0 0 0 0 0 0 0 0 0 0 0 0 0 0 0
0 0 0 0 0 2 4 5 7 10 12 14 17 18 16 12 10 12 13 14 14 14 13 12 10 7 3 1 0 0 0 0 0 0 0 0 0 0 0 0 0 0 0 0 0 0 0 0 0
0 0 0 0 1 2 3 5 8 11 13 15 18 20 18 13 11 11 13 15 16 16 14 13 11 8 4 1 0 0 0 0 0 0 0 1 1 0 0 0 0 0 0 0 0 0 0 0 0
0 0 0 0 1 1 1 4 9 13 16 18 19 19 18 17 15 14 16 17 18 18 17 14 11 9 6 2 0 0 0 0 0 1 2 2 1 0 0 0 0 0 0 0 0 0 0 0 0
0 0 0 0 0 0 0 3 8 12 16 18 19 18 18 18 18 19 22 24 25 24 21 17 13 10 7 3 1 0 1 1 2 2 4 3 2 1 1 1 0 0 0 0 0 0 0 0 0
0 0 0 0 0 0 0 2 5 9 13 17 18 17 16 16 18 23 28 31 32 30 26 22 18 14 11 6 3 1 2 3 3 3 4 4 3 2 2 2 1 0 0 0 0 0 0 0 0
0 0 0 0 0 0 0 1 3 5 10 15 17 16 14 15 19 26 32 35 35 33 32 29 25 23 18 12 7 3 3 3 3 3 3 3 3 3 3 2 1 0 0 0 0 0 0 0 0
0 0 0 0 0 0 1 1 2 4 8 14 16 15 15 17 22 28 34 37 36 36 34 31 29 27 23 18 13 8 6 5 4 3 3 3 3 3 3 2 0 0 0 0 0 0 0 1 1
0 0 0 0 0 0 0 0 1 4 8 12 15 15 16 20 25 29 35 38 39 38 35 30 27 26 25 22 17 12 10 8 6 4 3 3 3 3 3 2 1 0 0 0 0 0 0 0 0
0 0 0 0 0 0 0 0 1 3 8 12 15 15 17 23 28 31 35 39 40 39 36 30 26 25 25 23 18 14 11 9 8 5 4 3 3 3 4 4 2 1 0 0 0 0 0 0 0
0 0 0 0 0 0 0 0 1 4 8 12 15 15 18 26 31 33 36 38 39 38 36 33 30 28 27 23 19 15 12 10 9 8 5 4 3 3 4 4 3 2 1 0 0 0 0 0 0
0 0 0 0 0 0 0 0 2 5 9 13 16 16 20 28 34 35 35 37 38 37 37 37 33 29 26 22 19 16 14 13 12 10 6 4 3 3 4 4 3 3 2 1 0 0 0 0 0
0 0 0 0 0 0 0 1 3 5 9 14 18 20 24 30 34 33 32 33 35 37 38 37 33 28 24 21 19 17 16 16 14 11 8 6 4 4 3 3 3 3 3 1 0 0 0 0 0
0 0 0 0 0 0 0 2 4 6 9 14 20 24 27 30 31 29 26 27 31 35 36 34 32 27 22 20 19 18 17 15 13 12 10 8 6 5 4 3 1 1 2 1 0 0 0 0 0
0 0 0 0 0 0 0 1 4 7 11 16 21 26 30 31 30 27 24 25 30 33 34 33 32 26 20 18 18 16 15 14 11 11 10 8 6 6 4 3 1 1 2 2 1 0 0 0 0
0 0 0 0 0 0 0 1 3 7 13 17 21 27 33 33 30 28 26 27 30 34 36 35 34 29 23 19 16 14 13 12 11 11 10 8 7 6 4 3 2 2 2 2 1 0 0 0 0
0 0 0 0 0 0 0 1 3 7 13 16 20 29 35 35 32 29 29 29 32 36 37 38 36 33 27 21 17 14 12 12 13 12 10 8 7 6 4 3 3 2 1 1 0 0 0 0 0

GEFSSGP_con_prob3kmehi_222.txt.gz
EHI
9 4 1 0 0 0 0 0 0 0 0 0 0 0 0 0 0 0 0 0 0 0 0 1 2 3 3 2 2 3 4 3 2 1 0 0 0 0 0 0 0 0 0 2 4 5 3 3 3
4 3 1 0 0 0 0 0 0 0 0 0 0 0 0 0 0 0 0 0 0 0 0 1 2 3 3 3 3 4 5 3 2 0 0 0 0 0 0 0 0 0 0 1 3 3 2 2 1
1 1 0 0 0 0 0 0 0 0 0 0 0 0 0 0 0 0 0 0 0 0 0 1 2 3 3 3 4 4 4 3 1 0 0 0 0 0 0 0 1 1 1 1 1 1 1 1 0
1 1 0 0 0 0 0 0 0 0 0 0 0 0 0 0 0 0 0 0 0 0 0 0 1 1 1 2 3 3 2 1 1 0 0 0 1 0 0 0 1 2 1 0 0 0 0 0 0
0 0 0 0 0 0 0 0 0 1 0 0 0 0 0 0 0 0 0 0 0 0 0 0 0 0 0 1 1 1 1 0 0 0 0 0 0 0 0 0 1 1 1 0 0 0 0 0 0
0 0 0 0 0 0 0 0 0 0 0 0 0 0 0 0 0 0 0 0 0 0 0 0 0 1 1 1 0 0 0 0 0 0 0 0 0 0 0 1 2 2 1 0 0 0 0 1 1
0 0 0 0 0 0 0 0 0 0 0 0 0 0 0 0 0 0 0 0 0 0 0 0 0 1 1 1 0 0 0 0 0 0 0 0 0 0 0 1 2 3 1 0 0 0 0 0 0
0 0 0 0 0 0 0 0 0 0 0 0 0 0 0 0 0 0 0 0 0 0 0 0 0 0 1 1 0 0 0 0 0 1 2 1 0 0 0 1 2 2 1 0 0 0 0 0 0
0 0 0 0 0 0 0 0 0 1 1 0 0 0 1 1 0 1 1 1 0 0 0 0 0 0 0 0 0 0 0 0 0 1 2 1 0 0 0 0 1 1 1 0 0 0 0 0 0
0 0 0 0 0 0 0 1 1 2 2 1 1 2 3 2 2 2 2 1 0 0 0 0 0 0 0 0 0 0 0 0 0 1 1 1 0 0 0 0 0 0 0 0 0 0 0 0 0
0 0 0 0 0 0 0 1 1 2 2 1 3 6 6 4 3 3 2 1 0 0 0 0 0 0 0 0 0 0 0 0 0 0 0 0 0 0 0 0 1 0 0 0 0 0 0 0 0
0 0 0 0 0 0 0 0 1 1 1 3 7 11 10 6 3 2 1 0 0 0 0 0 0 0 0 0 0 0 0 0 0 0 0 0 0 0 0 0 0 0 0 0 0 0 0 0 0
0 0 0 0 0 0 0 0 0 1 2 6 11 12 10 5 2 1 1 0 0 0 0 0 0 0 0 0 0 0 0 0 0 0 0 0 0 0 0 0 0 0 0 0 0 0 0 0 0
0 0 0 0 0 1 1 0 0 2 6 9 10 9 7 4 1 0 0 0 0 0 0 0 0 0 0 0 0 0 0 0 0 0 0 0 0 0 0 0 0 0 0 0 0 0 0 0 0
0 0 0 0 0 1 1 1 2 6 10 10 8 6 5 4 1 0 0 0 0 1 0 0 0 0 0 0 0 0 0 0 0 0 0 0 0 0 0 0 0 0 0 0 0 0 0 0 0
0 0 0 0 0 1 1 1 3 7 10 10 8 6 5 3 1 0 0 0 0 1 1 0 0 0 0 0 0 0 0 0 0 0 0 0 0 0 0 0 0 0 0 0 0 0 0 0 0
0 0 0 0 0 0 0 0 3 6 8 9 8 6 4 2 0 0 0 0 1 2 2 1 0 0 0 0 0 0 0 0 0 0 0 0 0 0 0 0 0 0 0 0 0 0 0 0 0
0 0 0 0 0 0 0 1 3 5 7 7 6 4 2 0 0 0 0 1 1 2 2 2 2 1 1 1 1 0 0 0 0 0 0 0 1 1 1 0 0 0 0 0 0 0 0 0 0
0 0 0 0 0 0 0 1 4 5 5 4 4 4 2 0 0 1 1 1 2 3 3 4 5 4 3 3 2 1 0 0 0 0 0 1 2 2 2 1 0 0 0 0 0 0 0 0 0
0 0 0 0 0 0 0 1 3 5 5 4 4 6 5 2 0 1 2 3 4 6 7 7 7 7 6 5 3 2 0 0 0 0 0 1 2 3 2 1 0 0 0 0 0 0 0 0 0
0 0 0 0 1 0 0 0 2 4 5 4 4 6 6 4 2 1 3 6 9 10 9 9 9 9 8 6 5 3 1 1 2 1 1 1 3 3 2 1 0 0 0 0 0 0 0 0 0
0 0 0 0 0 0 0 0 1 3 4 4 5 5 5 5 4 2 4 9 12 12 11 11 11 10 8 6 5 4 3 3 3 3 2 3 3 3 3 1 0 0 0 0 0 0 0 0 0
0 0 0 0 0 0 0 0 1 2 4 5 6 6 4 4 5 4 5 10 12 13 13 15 14 12 9 6 5 5 4 3 3 3 3 3 3 3 3 2 1 0 0 0 0 0 0 0 0
0 0 0 0 0 0 0 0 0 1 3 6 7 6 5 5 5 5 6 10 12 14 16 18 17 14 11 8 6 6 5 5 4 4 3 3 3 3 3 3 1 1 0 0 0 0 0 0 0
0 0 0 0 0 0 0 0 0 1 3 4 6 6 6 6 5 5 8 11 14 16 17 17 16 13 11 9 7 7 7 7 6 5 4 3 3 3 3 3 3 2 1 0 0 0 0 0 0
0 0 0 0 0 0 0 0 1 2 3 5 6 8 8 8 8 9 9 12 15 17 18 16 13 10 8 7 7 7 7 7 6 4 3 3 3 3 2 2 2 2 2 1 0 0 0 0 0
0 0 0 0 0 0 0 0 1 2 4 6 8 9 9 12 13 12 11 11 14 16 17 15 12 9 6 6 6 6 6 7 6 4 4 4 3 3 2 2 1 1 2 1 0 0 0 0 0
0 0 0 0 0 0 0 0 0 1 3 6 8 8 9 12 14 13 12 11 12 13 13 13 11 8 6 5 5 5 6 7 7 6 6 5 4 3 3 2 0 0 1 1 0 0 0 0 0
0 0 0 0 0 0 0 0 1 1 3 6 6 6 8 9 10 12 11 11 10 10 9 10 10 8 7 6 4 4 6 7 8 7 7 5 4 3 3 2 0 0 0 0 0 0 0 0 0
0 0 0 0 0 0 0 1 2 2 4 5 5 6 7 7 8 10 11 10 10 9 8 8 9 9 8 6 4 4 5 6 7 7 6 4 4 3 3 2 1 0 0 0 0 0 0 0 0

GEFSSGP_con_prob3kmehi_228.txt.gz
EHI
25 19 15 16 12 3 0 0 0 0 0 0 0 0 0 0 0 0 0 0 0 0 1 2 3 3 2 1 2 3 3 3 3 3 3 3 2 2 1 1 4 5 5 4 3 3 3 4 4
23 16 13 13 7 1 0 0 0 0 0 0 0 0 0 0 0 0 0 0 0 1 2 3 3 3 1 1 3 3 3 3 3 3 3 2 1 1 0 1 2 3 3 3 3 3 3 4 4
17 13 10 6 2 0 0 0 0 0 0 0 0 0 0 0 0 0 0 0 0 2 3 4 5 3 1 2 3 3 3 3 3 3 2 1 0 0 0 0 1 1 1 3 3 3 3 3 4
12 10 6 1 0 0 0 0 0 0 0 0 0 0 0 0 0 0 0 0 0 1 2 3 4 2 0 1 2 3 3 3 2 1 1 0 0 0 0 0 0 0 1 2 3 3 3 3 3
9 7 3 0 0 0 0 0 0 0 0 0 0 0 0 0 0 0 0 0 0 0 1 2 2 1 0 1 2 3 2 1 1 0 0 0 0 0 0 0 0 0 1 3 3 3 3 3 3
5 3 1 0 0 0 0 1 1 1 0 0 0 0 1 1 0 0 0 0 0 0 0 0 1 0 0 1 1 1 1 0 0 0 0 0 0 0 0 0 0 0 2 3 3 3 3 3 4
1 1 0 0 0 0 0 1 2 1 0 0 0 1 2 2 1 0 0 0 0 0 0 0 0 0 0 0 0 0 0 0 0 0 0 0 0 0 0 0 0 1 2 3 3 3 3 4 4
0 0 0 0 0 0 1 1 1 1 0 0 0 1 2 3 2 1 1 0 0 0 0 0 0 0 0 0 0 0 0 0 0 0 0 0 0 0 0 0 1 2 3 3 3 3 3 3 4
0 0 0 0 0 0 1 2 1 0 0 0 0 1 3 4 4 3 2 1 0 0 0 0 0 0 0 0 0 0 0 0 0 0 0 0 0 0 0 1 2 3 3 3 3 3 3 3 2
0 0 0 0 0 0 1 2 1 0 0 0 1 2 5 5 4 3 3 1 0 0 0 0 0 0 0 0 0 0 0 0 0 0 0 1 1 1 1 2 3 3 3 3 3 3 2 1 1
0 0 0 0 0 0 0 1 1 0 0 1 3 6 7 5 2 2 2 1 0 0 0 0 0 0 0 0 0 0 0 0 0 0 1 2 2 2 3 3 3 3 3 2 2 2 1 0 0
0 0 0 0 0 0 0 0 0 0 0 1 4 7 7 4 1 1 1 1 0 0 0 0 1 2 2 1 0 0 0 0 0 0 1 2 3 3 3 4 4 3 2 2 1 1 1 1 1
0 0 0 0 0 0 0 0 0 0 1 3 6 7 5 3 1 0 1 1 1 0 0 0 1 3 4 3 2 1 1 1 0 0 1 2 3 3 4 5 5 3 2 1 1 1 2 2 2
0 0 0 0 0 0 0 0 0 1 2 5 7 6 3 2 1 1 2 2 2 1 0 0 1 3 5 6 5 3 2 2 2 1 1 1 2 3 5 6 6 5 3 2 2 3 3 4 4
0 0 0 0 0 0 0 0 1 2 4 6 7 5 2 1 1 2 2 2 2 1 0 0 2 4 6 6 5 4 3 3 3 2 2 2 3 4 5 6 6 6 5 3 3 3 4 4 4
0 0 0 0 0 0 0 1 3 4 5 6 6 4 3 2 2 2 1 1 1 1 2 2 3 4 7 7 6 5 5 4 3 3 3 3 3 4 5 5 5 5 5 4 3 3 4 4 4
0 0 0 0 0 0 0 2 5 6 5 5 5 4 3 3 3 2 0 0 1 2 5 7 7 7 8 9 9 8 8 6 4 3 3 4 4 4 4 4 4 4 4 3 3 2 3 4 4
0 0 0 0 0 0 0 2 6 7 5 5 6 5 3 3 3 2 1 0 1 5 9 11 12 11 11 11 12 12 11 9 6 3 4 5 5 4 4 3 3 3 3 3 3 3 3 3 3
0 0 0 0 0 0 0 1 5 7 6 6 7 6 5 4 4 3 2 1 2 6 11 14 15 16 15 13 14 16 15 12 8 5 6 7 7 6 5 5 4 4 4 4 4 4 4 3 3
0 0 0 0 0 0 0 0 3 5 6 5 6 8 6 6 6 4 3 2 4 9 13 15 17 19 19 16 15 17 17 14 11 8 9 10 10 9 7 7 6 5 5 6 6 6 5 4 3
0 0 0 0 0 0 0 0 1 4 5 4 6 8 7 7 7 6 5 5 9 12 13 15 20 23 25 22 17 17 18 16 12 10 10 11 11 10 8 7 7 6 6 7 8 7 6 4 3
0 0 0 0 0 0 0 0 1 2 5 7 9 10 9 8 9 8 8 10 12 13 13 16 23 28 29 26 21 19 18 15 11 10 9 10 11 11 9 7 7 7 7 8 8 7 7 6 4
0 0 0 0 0 0 0 0 0 1 4 8 11 12 11 11 11 10 11 13 12 11 12 17 24 29 31 27 23 21 19 16 14 14 13 12 11 10 9 8 9 9 9 9 8 8 8 7 6
1 0 0 0 0 0 0 0 1 1 3 6 10 12 13 13 13 13 13 15 14 11 13 18 24 28 29 27 25 23 22 21 21 19 16 14 12 10 9 9 10 10 10 9 9 9 7 6 6
1 0 0 0 0 0 0 1 2 3 3 5 8 13 15 16 17 17 19 21 19 16 17 21 25 27 27 26 26 25 23 22 20 17 14 12 11 10 10 10 11 11 10 10 9 8 7 5 4
1 0 0 0 0 0 0 1 3 4 4 6 9 15 18 20 21 21 23 26 24 21 22 24 27 28 27 25 25 24 20 17 14 11 10 10 10 10 11 13 13 12 11 10 9 8 7 7 6
0 0 0 0 0 0 0 1 3 6 8 10 12 16 20 24 24 21 22 25 25 24 25 26 29 30 28 25 22 20 19 16 13 9 8 9 11 11 12 13 13 12 11 9 9 9 9 8 8
0 0 0 0 0 0 0 1 4 9 12 13 14 15 20 25 24 20 20 24 25 25 26 27 28 28 26 23 20 18 17 15 13 10 9 11 13 14 14 15 14 12 10 9 9 9 9 9 9
0 0 0 0 0 0 0 1 6 11 13 13 14 16 20 23 22 18 19 23 25 24 25 26 26 24 22 21 20 17 15 14 12 10 10 13 15 17 17 17 16 14 11 10 10 10 10 10 10
0 0 0 0 0 0 0 2 6 12 14 13 14 18 20 21 20 19 20 23 24 23 22 24 25 21 19 20 21 18 16 14 12 11 11 13 16 18 19 19 18 16 12 10 10 10 11 12 11

GEFSSGP_con_prob3kmehi_234.txt.gz
EHI
7 17 34 43 33 13 2 0 0 0 0 0 0 1 1 1 0 0 1 3 4 2 1 1 3 3 1 1 1 1 0 0 0 1 1 1 0 0 0 0 1 1 1 2 2 1 0 0 0
14 28 43 41 23 7 1 0 0 0 0 0 0 0 0 0 0 0 1 2 3 2 2 3 5 4 2 1 1 0 0 0 0 0 0 0 0 0 0 0 0 0 1 2 2 1 0 0 0
26 39 44 30 11 2 0 0 0 0 0 0 0 0 0 0 0 0 0 1 2 4 5 7 8 7 5 3 1 0 0 0 0 0 0 0 0 0 0 1 1 0 1 2 2 1 0 0 0
37 40 32 15 4 0 0 0 0 0 0 0 0 0 0 0 0 0 0 0 2 7 10 10 10 9 7 4 2 0 0 0 0 0 0 0 1 1 1 2 2 1 1 3 3 2 1 0 0
38 32 19 6 1 0 0 0 0 1 1 1 0 0 0 1 1 1 1 1 3 8 11 11 11 10 7 4 2 1 0 0 0 0 0 0 1 2 2 2 3 2 2 3 3 2 2 1 0
32 22 9 2 0 0 0 0 0 1 1 1 0 0 1 3 4 3 2 2 3 7 10 11 11 9 5 3 2 1 0 0 0 0 0 0 1 1 1 1 2 2 1 1 1 1 2 2 1
23 13 4 0 0 0 0 0 0 0 0 0 0 0 2 4 5 5 4 3 3 4 6 8 8 6 3 1 1 0 0 0 0 0 0 0 0 0 0 0 1 1 0 0 0 0 2 3 3
10 5 1 0 0 0 0 0 0 0 0 0 0 1 3 5 6 6 5 4 2 3 4 4 4 5 3 1 1 0 0 0 0 0 0 1 1 0 0 1 1 0 0 0 0 0 2 3 4
2 1 0 0 0 0 0 0 0 0 0 0 2 3 4 5 6 6 5 4 3 3 4 3 2 4 4 2 0 0 0 0 1 1 1 3 3 1 1 2 3 2 1 0 1 2 2 3 4
0 0 0 0 0 0 0 0 0 0 1 1 3 4 4 4 6 5 3 3 3 3 4 4 2 2 3 1 0 1 2 2 2 1 2 4 4 2 2 4 5 4 2 1 2 3 3 2 2
0 0 0 0 0 0 0 0 0 1 2 2 4 4 3 3 5 4 3 3 2 2 3 4 4 4 4 3 2 2 4 4 3 3 3 3 2 1 2 4 5 4 3 2 3 4 2 1 0
0 0 0 0 0 0 0 0 0 1 2 3 5 5 3 3 5 4 2 2 1 2 4 5 6 8 10 8 5 4 4 4 4 4 3 1 0 0 2 4 3 2 2 2 3 3 1 0 1
0 0 0 0 0 0 0 0 0 1 2 3 5 5 2 3 5 3 1 1 2 3 5 7 9 11 13 13 11 8 5 3 4 5 4 1 0 1 2 3 2 1 1 2 3 2 1 1 2
0 0 0 0 0 0 0 0 0 0 1 3 4 4 3 3 3 2 1 2 3 5 6 8 10 11 12 14 15 11 6 4 6 8 7 3 1 2 2 2 1 1 2 2 2 2 2 3 3
1 1 1 0 1 2 2 1 0 1 2 2 3 4 5 4 3 3 4 5 7 8 8 8 9 11 12 13 11 7 5 5 8 10 10 8 5 3 1 1 1 1 3 4 4 5 5 4 2
0 1 1 1 1 2 3 2 1 1 2 4 6 7 9 7 5 6 7 8 12 15 14 10 9 12 15 14 10 7 6 8 11 13 14 13 9 5 2 2 3 4 3 4 4 5 7 4 1
0 0 0 0 1 1 2 2 1 0 2 6 10 13 13 10 8 9 10 12 19 23 20 14 11 14 18 18 15 12 12 15 17 17 16 15 11 8 7 7 8 7 5 4 3 4 5 4 2
0 0 0 0 0 0 1 2 2 1 2 8 14 18 17 12 11 12 13 16 24 30 26 19 15 16 20 20 19 18 17 18 20 21 20 17 13 11 10 10 10 7 6 6 4 4 5 5 5
0 0 0 0 0 0 1 2 2 1 4 11 18 22 20 15 15 18 18 20 28 34 33 27 22 21 22 19 17 19 18 17 20 23 24 21 17 13 11 9 8 6 6 6 5 4 5 6 6
0 0 0 0 0 0 0 1 2 2 5 14 21 22 20 19 22 26 25 25 32 39 39 32 27 27 24 19 16 17 18 18 22 25 26 24 20 16 14 11 9 7 6 7 8 6 5 4 5
0 0 0 0 0 0 0 2 3 2 4 13 21 22 21 23 29 31 30 31 37 43 40 33 30 29 26 22 18 15 16 20 25 28 27 24 21 19 16 14 12 10 10 11 10 9 6 2 1
0 0 0 0 0 0 0 3 5 4 5 11 19 23 24 28 33 35 35 35 39 42 40 36 35 31 28 26 22 18 17 19 23 26 26 24 22 20 19 17 15 14 13 12 11 9 6 2 1
0 0 0 0 0 0 0 2 5 7 6 9 15 20 23 28 34 39 40 37 36 38 40 41 41 36 32 30 28 24 21 19 20 24 25 24 24 24 23 21 17 15 13 11 9 8 5 3 2
0 0 0 0 0 0 0 2 5 6 5 6 9 14 20 25 31 39 42 40 37 37 40 45 46 43 37 34 32 28 23 21 22 26 27 25 24 25 24 22 19 15 12 10 8 7 6 3 2
0 0 0 0 0 0 0 2 4 5 5 6 8 13 19 23 28 36 42 44 43 42 43 48 51 48 42 36 32 28 25 23 25 28 28 25 22 21 21 22 22 19 14 12 10 10 9 7 6
0 0 0 0 0 0 1 3 4 5 6 8 11 15 19 23 28 37 44 47 47 46 47 51 53 50 44 39 34 31 28 25 26 28 27 23 20 19 20 23 24 21 17 14 13 13 14 13 12
0 0 0 0 0 0 2 6 7 7 7 9 13 16 19 24 31 40 48 49 48 47 49 53 54 50 45 41 38 36 32 28 26 27 25 21 19 21 23 23 21 19 17 16 15 16 16 17 16
0 0 0 0 0 0 2 7 9 9 10 12 17 20 23 27 34 44 50 50 46 44 47 53 54 51 47 44 41 39 37 31 26 25 23 20 19 22 22 21 19 18 18 17 16 17 18 18 18
0 0 0 0 0 0 2 7 10 12 13 17 22 27 28 29 35 44 50 50 45 41 45 51 53 50 46 44 41 40 39 33 27 24 22 20 18 18 18 16 16 17 18 19 19 18 18 18 18
0 0 0 0 0 0 2 6 9 11 15 20 26 30 30 30 35 43 49 49 43 40 45 51 51 47 43 42 40 40 38 33 28 24 21 18 16 14 12 12 14 15 17 21 22 19 18 17 18

GEFSSGP_con_prob3kmehi_240.txt.gz
EHI
8 5 2 1 1 1 0 0 0 0 1 1 1 0 0 0 0 0 0 0 0 0 0 1 4 7 7 7 8 8 6 5 5 5 5 3 2 1 0 0 0 0 0 1 1 1 0 0 0
6 4 2 1 0 0 0 0 1 1 1 1 0 0 0 0 0 0 0 0 0 0 0 2 4 6 7 7 6 6 5 4 4 5 4 2 1 0 0 0 0 0 0 0 0 0 0 0 0
5 4 2 1 0 0 0 1 3 3 2 1 0 0 0 0 0 0 1 1 0 0 1 3 5 6 6 6 5 4 4 4 4 4 3 1 0 0 0 0 1 0 0 0 0 0 0 0 0
7 6 3 1 0 0 0 2 5 5 3 1 0 0 0 0 0 1 2 1 0 0 2 4 6 7 6 6 5 3 2 3 4 3 1 0 0 0 0 0 0 0 0 0 0 1 1 0 0
7 5 2 0 0 0 0 2 4 4 2 0 0 0 0 0 1 4 4 2 1 1 2 4 6 7 7 6 5 3 2 2 3 1 0 0 0 0 0 0 0 0 1 0 1 2 2 1 0
7 4 1 0 0 0 1 2 2 1 0 0 0 0 0 0 1 4 6 4 2 2 2 3 5 7 6 7 7 4 2 2 2 1 1 1 1 0 0 0 0 0 0 0 1 2 2 1 0
7 5 2 0 0 0 1 1 1 1 1 0 0 0 0 0 0 3 6 5 4 3 2 1 3 4 4 6 6 5 3 3 3 2 2 2 1 0 0 0 0 0 1 1 1 2 2 2 1
6 4 1 0 0 0 0 0 1 3 2 1 0 0 0 0 1 2 5 6 5 4 2 1 1 1 1 2 3 2 2 2 3 3 3 2 1 1 0 0 0 0 1 2 2 2 3 2 1
3 2 1 1 0 0 0 0 1 3 3 1 1 1 1 1 2 3 4 6 6 5 3 1 0 0 0 0 0 0 0 1 2 2 2 2 1 0 0 0 1 1 1 1 2 2 2 1 0
2 2 2 1 0 0 0 0 1 2 3 3 3 2 1 1 3 4 4 5 5 4 2 1 0 0 0 0 0 0 0 0 1 1 1 1 0 0 0 0 1 1 0 0 1 1 1 0 0
2 3 3 1 0 0 0 0 1 2 3 4 4 4 2 1 2 3 2 3 4 3 1 0 0 0 0 0 0 0 0 0 0 0 0 0 0 0 0 0 1 1 0 0 0 1 1 0 0
1 2 2 1 0 0 0 0 1 3 4 4 5 5 2 0 0 1 2 3 5 4 2 1 0 0 0 0 0 0 0 0 0 0 0 0 0 0 0 0 0 0 0 0 0 0 0 0 0
0 1 1 0 0 0 1 1 1 3 5 5 6 6 3 1 1 1 4 7 8 7 6 4 2 1 1 0 0 0 0 0 0 0 0 0 0 0 0 0 0 0 0 0 0 0 0 0 0
0 0 0 0 1 1 1 2 2 4 5 6 7 6 3 3 3 4 5 8 10 9 8 7 5 4 3 1 0 0 0 0 0 0 0 0 0 0 0 0 0 0 0 0 0 0 0 0 0
0 0 0 0 0 0 1 1 1 3 5 5 7 6 5 5 7 6 6 7 8 8 8 7 5 4 3 2 1 0 0 0 1 1 1 0 0 0 0 0 0 0 0 0 0 0 0 0 0
0 0 0 0 0 0 0 0 1 3 4 4 5 6 6 6 7 7 7 6 6 6 6 5 3 2 1 1 0 0 0 1 2 2 1 0 0 0 0 0 0 0 0 0 0 0 0 0 0
0 0 0 0 0 0 0 0 1 4 5 5 5 5 5 5 6 8 9 7 5 5 5 4 2 1 0 0 0 0 0 2 2 2 1 1 0 0 0 0 0 0 0 0 0 0 0 0 0
0 0 0 0 0 1 0 0 1 5 7 7 7 7 6 4 5 10 11 9 6 5 5 4 3 2 2 1 0 0 0 1 2 3 3 2 1 0 0 0 0 0 0 0 0 0 0 0 0
0 0 0 0 0 0 0 1 3 5 7 7 9 9 8 6 7 12 14 13 10 8 5 3 3 4 3 2 1 1 1 1 2 5 5 3 2 1 1 0 0 0 0 0 0 0 0 0 0
0 0 0 0 0 0 1 2 4 5 6 8 10 12 11 8 9 14 17 17 15 11 7 5 4 5 6 5 4 3 2 2 3 4 5 5 4 3 3 1 0 0 0 0 0 0 0 0 0
0 0 0 0 0 0 1 2 5 6 6 8 12 15 13 10 11 15 19 21 21 16 11 8 7 7 9 8 7 6 5 6 5 5 6 7 6 6 5 3 1 1 0 0 0 0 0 0 0
0 0 0 0 0 0 1 1 5 8 7 7 12 15 14 12 14 17 21 24 24 20 16 13 12 11 11 10 9 8 8 8 8 7 7 7 7 7 6 5 4 2 1 0 0 0 0 0 0
0 0 0 0 0 0 0 1 4 8 8 8 11 15 16 16 17 18 21 24 23 22 21 18 17 15 12 10 9 10 10 10 10 8 6 7 8 7 6 5 5 3 2 1 0 0 0 0 0
0 0 0 0 0 0 0 1 4 7 9 10 14 18 18 19 19 18 19 22 24 25 26 25 22 19 15 12 11 11 12 12 13 10 6 6 7 6 5 4 4 3 3 2 1 0 0 0 0
0 0 0 0 0 0 0 1 4 8 10 13 16 19 20 21 22 21 21 26 29 30 31 31 28 23 18 17 16 14 13 13 13 10 7 6 6 6 6 4 3 3 3 3 2 1 0 0 0
0 0 0 0 0 0 1 3 6 9 11 13 15 19 21 23 25 26 28 31 34 34 34 34 31 26 23 22 19 15 13 11 10 8 7 6 6 7 7 5 4 3 4 4 4 3 1 1 1
0 0 0 0 0 0 1 4 6 8 10 12 15 18 20 22 25 29 31 33 35 36 35 35 32 29 27 24 21 16 12 10 9 8 7 6 6 5 5 5 4 4 5 6 6 5 4 3 3
0 0 0 0 0 0 1 2 4 8 11 14 17 19 20 21 25 30 33 34 35 34 33 33 34 32 29 26 21 16 14 13 12 10 7 5 4 4 4 4 4 4 6 6 6 6 6 5 5
0 0 0 0 0 0 0 1 4 10 14 16 20 22 23 25 28 31 34 34 34 32 30 31 33 32 30 27 22 18 17 17 14 10 5 4 3 3 3 3 4 5 6 6 6 6 6 6 6
0 0 0 0 0 0 0 1 6 12 16 18 22 25 27 29 30 32 35 34 32 31 30 30 32 32 30 27 23 19 18 17 14 8 4 3 3 3 3 4 5 6 6 6 6 6 6 6 6

GEFSSGP_con_prob3kmehi_246.txt.gz
EHI
0 0 0 0 0 0 0 0 0 0 0 0 0 0 0 0 0 0 0 0 0 0 0 0 0 0 0 0 0 1 2 3 4 4 4 2 1 0 0 0 0 0 0 0 0 0 0 1 0
0 0 0 0 0 0 0 0 0 0 0 0 0 0 0 0 0 0 0 0 0 0 0 0 1 1 1 1 1 2 3 4 6 7 7 5 3 1 0 0 0 0 0 0 0 0 0 1 1
1 1 0 0 0 0 0 0 1 1 0 0 0 0 0 0 0 0 0 0 0 0 0 0 2 3 3 3 3 4 5 6 8 10 9 7 4 2 1 0 0 0 0 0 0 0 0 1 1
1 1 0 0 0 0 0 1 2 2 1 0 0 0 0 0 0 0 0 0 0 0 0 0 1 3 5 5 5 5 6 7 8 9 8 7 5 4 1 0 0 0 0 0 0 0 0 1 2
2 1 0 0 0 0 0 1 1 1 1 0 0 0 0 0 0 0 1 0 0 0 0 0 0 2 3 4 4 5 5 5 6 6 5 5 5 4 2 0 0 0 0 0 0 0 0 1 2
1 1 0 0 0 0 0 0 0 0 0 0 0 0 0 0 0 0 0 0 0 0 0 0 0 0 1 2 4 5 6 5 4 4 4 3 2 1 1 0 0 0 0 0 0 0 0 1 1
1 0 0 0 0 0 0 0 0 0 0 0 0 0 0 0 0 0 0 1 1 1 0 0 0 0 0 0 2 4 5 4 4 3 3 2 1 0 0 0 0 0 0 0 0 0 0 0 1
1 0 0 0 0 0 0 0 0 0 0 0 0 0 0 1 1 1 1 2 2 1 0 1 1 1 0 0 0 1 2 2 2 3 3 2 1 0 0 0 0 0 0 0 0 0 0 0 1
0 0 0 0 0 0 0 0 0 0 0 0 0 0 0 1 2 2 2 2 2 1 0 1 2 1 0 0 0 0 0 0 1 2 2 2 1 0 0 0 0 0 0 0 0 0 0 0 1
0 0 0 0 0 0 0 0 0 0 0 0 0 0 0 0 1 2 2 2 1 0 0 0 1 1 0 0 0 0 0 0 0 1 1 1 0 0 0 0 0 0 0 0 0 0 0 0 0
0 0 0 0 0 0 0 0 0 0 0 1 1 1 1 0 0 1 2 2 1 0 0 0 0 0 0 0 0 0 0 0 0 0 0 0 0 0 0 0 0 0 0 0 0 0 0 0 0
0 0 0 0 0 0 1 1 1 0 0 1 2 2 1 0 0 1 1 1 1 1 1 0 0 0 0 0 0 0 0 0 0 0 0 0 0 0 0 0 0 0 0 0 0 0 0 0 0
0 0 0 0 0 0 1 2 1 0 1 2 1 1 1 0 0 0 0 0 1 1 1 0 0 0 0 0 0 0 0 0 0 0 0 0 0 0 0 0 0 0 0 0 0 0 0 0 0
0 0 0 0 0 0 1 2 2 2 2 2 2 2 1 0 0 0 0 1 1 1 0 0 0 0 0 0 0 0 0 0 0 0 0 0 0 0 0 0 0 0 0 0 0 0 0 0 0
0 0 0 0 0 0 1 1 1 3 4 2 2 3 2 1 0 0 1 1 1 0 0 0 0 0 0 0 0 0 0 0 0 0 1 1 1 0 0 0 0 0 0 0 0 0 0 0 0
0 0 0 0 0 0 0 0 1 3 4 3 3 3 3 2 1 1 2 1 0 0 0 0 0 0 0 0 0 0 0 0 1 1 2 2 1 0 0 0 0 0 0 0 0 0 0 0 0
0 0 0 0 0 0 0 0 1 2 3 3 3 3 3 3 3 3 2 1 0 0 0 0 0 0 0 1 1 0 0 1 2 2 2 1 1 0 0 0 0 0 0 0 0 0 0 0 0
0 0 0 0 0 0 0 1 2 3 2 2 2 3 3 3 4 4 3 1 0 0 0 0 0 0 1 2 2 1 1 1 2 1 1 0 0 0 0 0 0 0 0 0 0 0 0 0 0
0 0 0 0 0 1 0 1 2 2 2 1 1 2 3 4 6 6 3 1 1 1 1 0 0 1 2 3 3 2 2 2 1 0 0 0 0 0 0 0 0 0 0 0 0 0 0 0 0
0 0 0 0 0 1 1 0 1 1 1 0 0 1 4 6 8 7 5 3 3 3 2 0 0 1 2 3 3 3 3 2 1 1 0 0 0 0 0 0 0 0 0 0 0 0 0 0 0
0 0 0 0 0 0 1 0 0 0 0 1 1 2 5 7 8 7 6 5 5 4 2 0 0 0 1 3 4 4 3 3 2 2 1 0 0 0 0 0 0 0 0 0 0 0 0 0 0
0 0 0 0 0 0 0 0 0 1 1 2 3 4 5 7 8 8 7 6 5 4 2 0 0 0 1 2 4 5 4 4 3 2 1 0 0 0 0 0 0 0 0 0 0 0 0 0 0
0 0 0 0 0 0 0 0 1 2 3 3 4 4 5 7 8 8 7 7 6 4 3 1 1 2 2 3 4 5 5 4 2 1 0 0 0 1 1 1 1 0 0 0 0 0 0 0 0
0 0 0 0 0 0 0 0 1 2 3 3 3 3 4 7 8 6 5 6 5 4 3 2 1 2 4 5 6 6 6 5 3 1 0 0 0 1 2 3 2 1 1 0 0 0 0 0 0
0 0 0 0 0 0 0 0 1 1 2 2 2 3 4 5 5 3 3 5 5 3 3 2 2 2 4 6 7 7 6 6 5 4 1 0 0 1 2 3 3 3 2 1 0 0 0 0 1
0 0 0 0 0 0 0 0 1 1 0 0 1 2 2 2 2 1 2 4 5 4 3 3 3 3 4 6 7 8 7 6 6 4 1 0 0 1 2 3 3 3 3 2 1 1 0 0 1
0 0 0 0 0 0 0 0 1 1 1 1 1 1 0 0 0 0 1 3 5 4 3 4 4 5 5 7 8 9 8 7 6 4 1 0 0 1 3 3 3 3 3 3 3 2 1 1 1
0 0 0 0 0 0 0 0 1 2 3 4 3 1 1 1 1 1 1 2 4 4 3 4 5 6 7 9 10 10 9 7 6 4 2 1 1 2 3 3 3 3 3 3 3 3 3 2 2
0 0 0 0 0 0 0 0 1 3 5 6 5 3 3 3 3 3 2 2 3 3 3 4 7 8 10 10 10 9 8 7 6 5 3 1 1 2 3 3 3 3 3 3 3 3 3 3 3
0 0 0 0 0 0 0 1 2 4 6 7 6 5 6 7 6 5 3 3 3 2 3 5 8 10 12 11 9 8 7 7 6 6 4 1 1 2 3 3 3 3 3 3 3 3 3 3 3

GEFSSGP_con_prob3kmehi_252.txt.gz
EHI
6 5 6 8 5 1 0 0 0 0 0 0 0 0 0 0 0 0 0 0 0 0 0 0 0 0 0 0 1 2 2 1 0 0 0 0 0 0 0 0 0 1 1 1 1 1 0 0 0
6 8 11 8 3 0 0 0 0 0 0 0 0 0 0 0 0 0 0 0 0 0 0 0 0 0 0 0 1 2 3 1 0 0 0 0 0 0 0 0 0 0 0 1 2 2 1 0 0
9 14 15 7 1 0 0 0 0 0 0 0 0 0 0 0 0 0 0 0 0 0 0 0 0 0 0 0 1 2 3 2 1 0 0 0 0 0 0 0 0 0 0 1 2 2 1 0 0
13 17 13 4 0 0 0 0 0 0 0 0 0 0 0 0 0 0 0 0 0 0 0 1 1 0 0 0 0 1 2 3 2 1 0 0 0 0 0 0 0 0 0 1 1 1 0 0 0
14 13 8 2 0 0 0 0 0 0 0 0 0 0 0 0 0 0 0 0 0 0 0 2 3 2 1 0 0 0 1 2 3 2 1 0 0 0 0 0 0 0 0 1 0 0 0 0 0
10 8 3 0 0 0 0 0 0 0 0 0 0 0 0 0 0 0 0 0 0 0 0 2 4 3 2 1 0 0 0 1 2 2 2 1 1 0 0 0 0 0 0 0 0 0 0 0 1
4 3 1 0 0 0 0 0 0 0 0 0 0 0 0 0 0 0 0 0 0 0 0 1 2 2 1 1 0 0 0 0 1 1 2 2 2 1 0 0 0 0 0 0 0 0 0 1 2
1 0 0 0 0 0 0 0 0 0 0 0 0 0 0 1 1 1 0 0 0 0 0 0 0 0 0 0 0 0 0 0 0 0 1 1 1 1 0 0 0 0 0 0 0 0 0 1 2
0 0 0 0 0 0 0 0 0 0 0 0 0 0 1 2 2 2 1 0 1 0 0 0 0 0 0 0 0 0 0 0 0 0 0 0 0 0 0 0 0 0 0 0 0 0 0 0 1
0 0 0 0 0 0 0 0 0 0 0 0 0 0 1 3 3 2 1 0 0 0 0 0 0 0 0 0 0 0 0 0 0 0 0 0 0 0 0 0 0 0 0 0 0 0 0 0 0
0 0 0 0 0 0 0 0 0 0 0 0 0 1 2 3 2 1 0 1 1 0 0 0 0 0 0 0 0 0 0 0 0 0 0 1 1 0 0 0 0 0 0 0 0 0 0 0 0
0 0 0 0 0 0 0 0 0 0 0 0 0 1 1 2 1 1 1 2 2 1 0 0 0 0 0 0 0 0 0 0 0 0 1 2 2 1 0 1 1 1 0 0 1 0 0 0 0
0 0 0 0 0 0 0 0 0 0 0 0 1 1 0 0 0 0 1 2 3 2 1 0 0 0 0 0 0 0 0 0 0 0 1 2 3 2 2 2 2 2 1 0 0 0 0 0 0
0 0 0 0 0 0 0 0 0 0 0 0 0 0 0 0 0 0 2 3 4 2 1 0 0 0 0 0 1 0 0 0 0 0 1 2 3 3 3 3 3 2 1 0 0 0 0 0 0
0 0 0 0 0 0 0 0 1 1 0 0 0 1 1 1 0 2 4 5 4 2 1 0 0 0 0 1 1 0 0 0 0 0 1 2 3 3 3 3 2 2 1 0 0 0 0 0 0
0 0 0 0 0 0 0 1 2 2 1 0 1 2 2 2 2 4 6 7 5 4 3 1 0 0 1 2 2 1 1 0 0 0 0 1 2 1 1 1 1 1 0 0 0 0 0 0 0
0 0 0 0 0 0 0 1 2 2 1 0 1 2 3 3 3 6 8 8 7 7 6 3 1 1 2 3 3 3 2 1 1 0 0 1 1 0 0 0 0 0 0 0 0 0 0 0 0
0 0 0 0 0 0 0 1 1 1 1 1 1 2 3 3 4 7 9 8 7 7 7 4 2 3 4 4 4 4 4 3 3 2 1 1 0 0 0 0 0 0 0 0 0 0 0 0 0
0 0 0 0 0 0 0 0 1 1 2 2 2 2 2 4 5 7 8 8 7 6 6 5 3 3 4 5 6 6 6 5 5 5 3 1 0 0 0 0 0 0 0 0 0 0 0 0 0
0 0 0 0 0 0 0 0 1 2 3 3 3 2 2 3 6 9 10 9 8 7 7 5 4 3 4 5 7 8 7 6 5 5 4 3 1 0 0 0 0 0 0 0 0 0 0 0 0
0 0 0 0 0 0 0 0 1 3 4 4 3 3 2 3 7 11 12 10 9 8 6 5 5 5 4 5 7 8 7 5 4 4 4 4 3 1 1 1 1 0 1 1 0 0 0 0 0
0 0 0 0 0 0 0 0 2 4 5 5 5 5 3 4 8 12 12 10 8 6 5 5 7 7 6 6 6 6 5 4 4 4 4 5 4 3 3 3 2 2 3 3 2 1 1 1 1
0 0 0 0 0 0 0 0 1 3 5 7 9 8 6 7 11 12 11 9 6 4 3 5 8 9 8 8 6 5 5 4 4 5 7 6 5 4 5 4 3 4 5 5 4 4 4 4 3
0 0 0 0 0 0 0 0 1 3 4 7 11 11 11 13 16 16 13 9 5 3 3 6 10 11 10 8 7 7 6 6 6 8 8 7 5 6 6 5 4 4 4 4 5 5 5 4 4
0 0 0 0 0 0 0 0 2 4 6 7 9 12 15 19 21 21 18 12 7 4 3 6 11 13 11 9 9 9 9 9 9 9 8 6 5 6 7 6 5 4 3 3 4 4 4 3 3
0 0 0 0 0 0 0 1 4 6 7 7 8 12 17 22 23 21 18 13 8 5 5 7 11 14 14 12 12 14 14 12 10 9 8 6 6 7 8 7 6 4 3 3 3 3 3 3 3
0 0 0 0 0 0 0 2 4 6 6 7 9 15 21 25 24 18 13 10 8 8 9 10 12 16 17 16 17 18 16 13 11 9 8 8 8 7 8 7 6 4 3 3 3 3 3 3 3
0 0 0 0 0 0 1 3 5 7 8 7 10 17 23 25 23 17 11 7 7 9 11 13 15 18 19 19 19 17 16 15 12 10 9 10 10 8 7 7 6 4 3 3 3 4 4 4 4
0 0 0 0 0 0 1 4 8 11 12 10 11 15 20 21 21 18 13 9 8 10 12 14 17 19 21 21 20 18 16 14 13 11 10 12 11 8 6 6 6 4 3 3 4 4 4 4 4
0 0 0 0 0 0 1 4 9 14 15 13 12 13 15 18 20 19 15 12 11 11 12 13 16 19 21 22 22 20 15 13 13 13 12 13 12 9 6 6 6 4 3 3 4 4 4 4 4